Wetterdaten: Donnerstag, 30.01.2020
Datum Zeit Temp. Aussen Temp. o. S. Temp +5cm Feuchte Auss Luftdruck Regen Sonnenschein Regendauer Solar Windben Empfang
30.01.2020 00:00 6,0 C 5,6 C 5,0 C 88 % 1013,2 hPa 0,0 l/m 0 min 0 min 0 W/m 19,3 km/h (3 Bft) 100,00 %
30.01.2020 00:02 6,0 C 5,6 C 5,0 C 88 % 1013,1 hPa 0,0 l/m 0 min 0 min 0 W/m 19,3 km/h (3 Bft) 100,00 %
30.01.2020 00:04 6,1 C 5,6 C 5,0 C 88 % 1013,1 hPa 0,0 l/m 0 min 0 min 0 W/m 22,5 km/h (4 Bft) 100,00 %
30.01.2020 00:08 6,1 C 5,6 C 5,0 C 88 % 1012,9 hPa 0,0 l/m 0 min 0 min 0 W/m 32,2 km/h (5 Bft) 100,00 %
30.01.2020 00:10 6,2 C 5,6 C 5,0 C 88 % 1013,0 hPa 0,0 l/m 0 min 0 min 0 W/m 29,0 km/h (5 Bft) 100,00 %
30.01.2020 00:12 6,2 C 5,6 C 5,0 C 88 % 1013,1 hPa 0,0 l/m 0 min 0 min 0 W/m 22,5 km/h (4 Bft) 100,00 %
30.01.2020 00:14 6,2 C 5,6 C 5,0 C 88 % 1013,1 hPa 0,0 l/m 0 min 0 min 0 W/m 19,3 km/h (3 Bft) 100,00 %
30.01.2020 00:16 6,2 C 5,6 C 5,0 C 88 % 1013,0 hPa 0,0 l/m 0 min 0 min 0 W/m 22,5 km/h (4 Bft) 97,87 %
30.01.2020 00:18 6,2 C 5,6 C 5,0 C 88 % 1013,0 hPa 0,0 l/m 0 min 0 min 0 W/m 22,5 km/h (4 Bft) 100,00 %
30.01.2020 00:20 6,3 C 5,6 C 5,0 C 88 % 1013,0 hPa 0,0 l/m 0 min 0 min 0 W/m 16,1 km/h (3 Bft) 100,00 %
30.01.2020 00:22 6,2 C 5,6 C 5,0 C 88 % 1013,0 hPa 0,0 l/m 0 min 0 min 0 W/m 16,1 km/h (3 Bft) 100,00 %
30.01.2020 00:24 6,3 C 5,6 C 5,0 C 88 % 1013,0 hPa 0,0 l/m 0 min 0 min 0 W/m 9,7 km/h (2 Bft) 97,87 %
30.01.2020 00:26 6,3 C 5,6 C 5,0 C 89 % 1013,1 hPa 0,0 l/m 0 min 0 min 0 W/m 6,4 km/h (2 Bft) 100,00 %
30.01.2020 00:28 6,3 C 5,6 C 5,0 C 88 % 1013,1 hPa 0,0 l/m 0 min 0 min 0 W/m 6,4 km/h (2 Bft) 100,00 %
30.01.2020 00:30 6,3 C 5,6 C 5,0 C 89 % 1013,1 hPa 0,0 l/m 0 min 0 min 0 W/m 19,3 km/h (3 Bft) 100,00 %
30.01.2020 00:32 6,3 C 5,6 C 5,0 C 89 % 1013,0 hPa 0,0 l/m 0 min 0 min 0 W/m 22,5 km/h (4 Bft) 100,00 %
30.01.2020 00:34 6,3 C 5,6 C 5,0 C 89 % 1013,1 hPa 0,0 l/m 0 min 0 min 0 W/m 25,7 km/h (4 Bft) 100,00 %
30.01.2020 00:36 6,3 C 5,6 C 5,0 C 89 % 1013,0 hPa 0,0 l/m 0 min 0 min 0 W/m 25,7 km/h (4 Bft) 100,00 %
30.01.2020 00:38 6,3 C 5,6 C 5,0 C 89 % 1013,1 hPa 0,0 l/m 0 min 0 min 0 W/m 19,3 km/h (3 Bft) 100,00 %
30.01.2020 00:40 6,3 C 5,6 C 5,0 C 89 % 1013,1 hPa 0,0 l/m 0 min 0 min 0 W/m 19,3 km/h (3 Bft) 100,00 %
30.01.2020 00:42 6,3 C 5,6 C 5,0 C 89 % 1013,2 hPa 0,0 l/m 0 min 0 min 0 W/m 19,3 km/h (3 Bft) 100,00 %
30.01.2020 00:44 6,3 C 5,6 C 5,0 C 89 % 1013,1 hPa 0,0 l/m 0 min 0 min 0 W/m 12,9 km/h (3 Bft) 97,87 %
30.01.2020 00:46 6,3 C 5,6 C 5,0 C 89 % 1013,1 hPa 0,0 l/m 0 min 0 min 0 W/m 16,1 km/h (3 Bft) 97,87 %
30.01.2020 00:48 6,3 C 5,6 C 5,0 C 89 % 1013,1 hPa 0,0 l/m 0 min 0 min 0 W/m 19,3 km/h (3 Bft) 97,87 %
30.01.2020 00:50 6,3 C 5,6 C 5,0 C 89 % 1013,1 hPa 0,0 l/m 0 min 0 min 0 W/m 16,1 km/h (3 Bft) 97,87 %
30.01.2020 00:52 6,4 C 6,1 C 5,0 C 89 % 1013,1 hPa 0,0 l/m 0 min 0 min 0 W/m 32,2 km/h (5 Bft) 97,83 %
30.01.2020 00:54 6,4 C 6,1 C 5,0 C 89 % 1013,1 hPa 0,0 l/m 0 min 0 min 0 W/m 25,7 km/h (4 Bft) 97,87 %
30.01.2020 00:56 6,4 C 6,1 C 5,0 C 89 % 1013,1 hPa 0,0 l/m 0 min 0 min 0 W/m 19,3 km/h (3 Bft) 95,74 %
30.01.2020 00:58 6,4 C 6,1 C 5,0 C 89 % 1013,1 hPa 0,0 l/m 0 min 0 min 0 W/m 12,9 km/h (3 Bft) 97,87 %
30.01.2020 01:00 6,4 C 5,6 C 5,0 C 89 % 1013,1 hPa 0,0 l/m 0 min 0 min 0 W/m 16,1 km/h (3 Bft) 97,87 %
30.01.2020 01:02 6,4 C 5,6 C 5,0 C 89 % 1013,1 hPa 0,0 l/m 0 min 0 min 0 W/m 12,9 km/h (3 Bft) 97,87 %
30.01.2020 01:04 6,4 C 5,6 C 5,0 C 89 % 1013,0 hPa 0,0 l/m 0 min 0 min 0 W/m 16,1 km/h (3 Bft) 97,83 %
30.01.2020 01:06 6,4 C 5,6 C 5,0 C 89 % 1013,0 hPa 0,0 l/m 0 min 0 min 0 W/m 16,1 km/h (3 Bft) 97,87 %
30.01.2020 01:08 6,4 C 5,6 C 5,0 C 88 % 1013,0 hPa 0,0 l/m 0 min 0 min 0 W/m 19,3 km/h (3 Bft) 97,87 %
30.01.2020 01:10 6,4 C 5,6 C 5,0 C 89 % 1013,0 hPa 0,0 l/m 0 min 0 min 0 W/m 16,1 km/h (3 Bft) 97,87 %
30.01.2020 01:12 6,4 C 5,6 C 5,0 C 89 % 1013,1 hPa 0,0 l/m 0 min 0 min 0 W/m 12,9 km/h (3 Bft) 95,74 %
30.01.2020 01:14 6,5 C 5,6 C 5,0 C 89 % 1013,0 hPa 0,0 l/m 0 min 0 min 0 W/m 22,5 km/h (4 Bft) 97,87 %
30.01.2020 01:16 6,5 C 5,6 C 5,0 C 89 % 1013,0 hPa 0,0 l/m 0 min 0 min 0 W/m 16,1 km/h (3 Bft) 97,83 %
30.01.2020 01:18 6,5 C 5,6 C 5,0 C 89 % 1013,1 hPa 0,0 l/m 0 min 0 min 0 W/m 25,7 km/h (4 Bft) 97,87 %
30.01.2020 01:20 6,5 C 5,6 C 5,0 C 88 % 1013,0 hPa 0,0 l/m 0 min 0 min 0 W/m 19,3 km/h (3 Bft) 97,87 %
30.01.2020 01:22 6,5 C 5,6 C 5,0 C 88 % 1013,0 hPa 0,0 l/m 0 min 0 min 0 W/m 29,0 km/h (5 Bft) 97,87 %
30.01.2020 01:24 6,5 C 5,6 C 5,0 C 88 % 1013,0 hPa 0,0 l/m 0 min 0 min 0 W/m 22,5 km/h (4 Bft) 97,87 %
30.01.2020 01:26 6,5 C 5,6 C 5,0 C 88 % 1013,1 hPa 0,0 l/m 0 min 0 min 0 W/m 29,0 km/h (5 Bft) 97,87 %
30.01.2020 01:28 6,5 C 5,6 C 5,0 C 88 % 1013,0 hPa 0,0 l/m 0 min 0 min 0 W/m 25,7 km/h (4 Bft) 95,65 %
30.01.2020 01:30 6,5 C 5,6 C 5,0 C 88 % 1013,1 hPa 0,0 l/m 0 min 0 min 0 W/m 16,1 km/h (3 Bft) 95,74 %
30.01.2020 01:32 6,5 C 5,6 C 5,0 C 89 % 1013,1 hPa 0,0 l/m 0 min 0 min 0 W/m 22,5 km/h (4 Bft) 100,00 %
30.01.2020 01:34 6,5 C 5,6 C 5,0 C 89 % 1013,1 hPa 0,0 l/m 0 min 0 min 0 W/m 19,3 km/h (3 Bft) 97,87 %
30.01.2020 01:36 6,4 C 5,6 C 5,0 C 89 % 1013,0 hPa 0,0 l/m 0 min 0 min 0 W/m 19,3 km/h (3 Bft) 97,87 %
30.01.2020 01:38 6,4 C 5,6 C 5,0 C 89 % 1013,0 hPa 0,0 l/m 0 min 0 min 0 W/m 12,9 km/h (3 Bft) 97,87 %
30.01.2020 01:40 6,4 C 5,6 C 5,0 C 89 % 1013,0 hPa 0,0 l/m 0 min 0 min 0 W/m 25,7 km/h (4 Bft) 100,00 %
30.01.2020 01:42 6,4 C 5,6 C 5,0 C 89 % 1013,1 hPa 0,0 l/m 0 min 0 min 0 W/m 16,1 km/h (3 Bft) 100,00 %
30.01.2020 01:44 6,4 C 5,6 C 5,0 C 89 % 1013,0 hPa 0,0 l/m 0 min 0 min 0 W/m 19,3 km/h (3 Bft) 100,00 %
30.01.2020 01:46 6,4 C 5,6 C 5,0 C 89 % 1013,0 hPa 0,0 l/m 0 min 0 min 0 W/m 25,7 km/h (4 Bft) 100,00 %
30.01.2020 01:48 6,4 C 5,6 C 5,0 C 89 % 1013,0 hPa 0,0 l/m 0 min 0 min 0 W/m 16,1 km/h (3 Bft) 95,74 %
30.01.2020 01:50 6,4 C 5,6 C 5,0 C 89 % 1013,0 hPa 0,0 l/m 0 min 0 min 0 W/m 16,1 km/h (3 Bft) 97,83 %
30.01.2020 01:52 6,4 C 5,6 C 5,0 C 89 % 1013,1 hPa 0,0 l/m 0 min 0 min 0 W/m 19,3 km/h (3 Bft) 95,74 %
30.01.2020 01:54 6,4 C 5,6 C 5,0 C 89 % 1013,0 hPa 0,0 l/m 0 min 0 min 0 W/m 16,1 km/h (3 Bft) 97,87 %
30.01.2020 01:56 6,4 C 5,6 C 5,0 C 89 % 1013,1 hPa 0,0 l/m 0 min 0 min 0 W/m 16,1 km/h (3 Bft) 95,74 %
30.01.2020 01:58 6,4 C 5,6 C 5,0 C 89 % 1013,0 hPa 0,0 l/m 0 min 0 min 0 W/m 16,1 km/h (3 Bft) 97,87 %
30.01.2020 02:00 6,4 C 5,6 C 5,0 C 89 % 1013,0 hPa 0,0 l/m 0 min 0 min 0 W/m 16,1 km/h (3 Bft) 93,62 %
30.01.2020 02:02 6,3 C 5,6 C 5,0 C 89 % 1013,0 hPa 0,0 l/m 0 min 0 min 0 W/m 25,7 km/h (4 Bft) 95,65 %
30.01.2020 02:04 6,3 C 5,6 C 5,0 C 89 % 1013,0 hPa 0,0 l/m 0 min 0 min 0 W/m 22,5 km/h (4 Bft) 95,74 %
30.01.2020 02:06 6,3 C 5,6 C 5,0 C 89 % 1013,0 hPa 0,0 l/m 0 min 0 min 0 W/m 19,3 km/h (3 Bft) 95,74 %
30.01.2020 02:08 6,3 C 5,6 C 5,0 C 89 % 1012,9 hPa 0,0 l/m 0 min 0 min 0 W/m 16,1 km/h (3 Bft) 93,62 %
30.01.2020 02:10 6,3 C 5,6 C 5,0 C 89 % 1012,9 hPa 0,0 l/m 0 min 0 min 0 W/m 16,1 km/h (3 Bft) 95,74 %
30.01.2020 02:12 6,3 C 5,6 C 5,0 C 89 % 1012,9 hPa 0,0 l/m 0 min 0 min 0 W/m 29,0 km/h (5 Bft) 93,62 %
30.01.2020 02:14 6,3 C 5,6 C 5,0 C 89 % 1012,9 hPa 0,0 l/m 0 min 0 min 0 W/m 19,3 km/h (3 Bft) 95,65 %
30.01.2020 02:16 6,3 C 5,6 C 5,0 C 89 % 1012,9 hPa 0,0 l/m 0 min 0 min 0 W/m 19,3 km/h (3 Bft) 95,74 %
30.01.2020 02:18 6,3 C 5,6 C 5,0 C 89 % 1012,8 hPa 0,0 l/m 0 min 0 min 0 W/m 12,9 km/h (3 Bft) 93,62 %
30.01.2020 02:20 6,3 C 5,6 C 5,0 C 89 % 1012,9 hPa 0,0 l/m 0 min 0 min 0 W/m 22,5 km/h (4 Bft) 95,74 %
30.01.2020 02:22 6,3 C 5,6 C 5,0 C 89 % 1012,9 hPa 0,0 l/m 0 min 0 min 0 W/m 12,9 km/h (3 Bft) 95,74 %
30.01.2020 02:24 6,3 C 5,6 C 5,0 C 89 % 1012,9 hPa 0,0 l/m 0 min 0 min 0 W/m 35,4 km/h (5 Bft) 95,74 %
30.01.2020 02:26 6,3 C 5,6 C 5,0 C 89 % 1012,9 hPa 0,0 l/m 0 min 0 min 0 W/m 19,3 km/h (3 Bft) 95,65 %
30.01.2020 02:28 6,3 C 5,6 C 5,0 C 89 % 1012,9 hPa 0,0 l/m 0 min 0 min 0 W/m 12,9 km/h (3 Bft) 95,74 %
30.01.2020 02:30 6,3 C 5,6 C 5,0 C 89 % 1012,9 hPa 0,0 l/m 0 min 0 min 0 W/m 9,7 km/h (2 Bft) 95,74 %
30.01.2020 02:32 6,2 C 5,6 C 4,4 C 89 % 1012,9 hPa 0,0 l/m 0 min 0 min 0 W/m 16,1 km/h (3 Bft) 95,74 %
30.01.2020 02:34 6,2 C 5,6 C 4,4 C 90 % 1012,9 hPa 0,0 l/m 0 min 0 min 0 W/m 12,9 km/h (3 Bft) 95,74 %
30.01.2020 02:36 6,2 C 5,6 C 4,4 C 90 % 1012,8 hPa 0,0 l/m 0 min 0 min 0 W/m 19,3 km/h (3 Bft) 97,83 %
30.01.2020 02:38 6,2 C 5,6 C 4,4 C 90 % 1012,9 hPa 0,0 l/m 0 min 0 min 0 W/m 19,3 km/h (3 Bft) 97,87 %
30.01.2020 02:40 6,2 C 5,6 C 4,4 C 90 % 1012,8 hPa 0,0 l/m 0 min 0 min 0 W/m 25,7 km/h (4 Bft) 97,87 %
30.01.2020 02:42 6,2 C 5,6 C 5,0 C 90 % 1012,8 hPa 0,0 l/m 0 min 0 min 0 W/m 35,4 km/h (5 Bft) 97,87 %
30.01.2020 02:44 6,2 C 5,6 C 5,0 C 90 % 1012,8 hPa 0,0 l/m 0 min 0 min 0 W/m 22,5 km/h (4 Bft) 97,87 %
30.01.2020 02:46 6,2 C 5,6 C 5,0 C 90 % 1013,0 hPa 0,0 l/m 0 min 0 min 0 W/m 25,7 km/h (4 Bft) 97,87 %
30.01.2020 02:48 6,2 C 5,6 C 5,0 C 90 % 1012,9 hPa 0,0 l/m 0 min 0 min 0 W/m 19,3 km/h (3 Bft) 97,87 %
30.01.2020 02:50 6,2 C 5,6 C 5,0 C 90 % 1012,8 hPa 0,0 l/m 0 min 0 min 0 W/m 16,1 km/h (3 Bft) 97,83 %
30.01.2020 02:52 6,2 C 5,6 C 4,4 C 90 % 1012,8 hPa 0,0 l/m 0 min 0 min 0 W/m 12,9 km/h (3 Bft) 97,87 %
30.01.2020 02:54 6,2 C 5,6 C 4,4 C 90 % 1012,8 hPa 0,0 l/m 0 min 0 min 0 W/m 16,1 km/h (3 Bft) 97,87 %
30.01.2020 02:56 6,1 C 5,6 C 4,4 C 90 % 1012,8 hPa 0,0 l/m 0 min 0 min 0 W/m 25,7 km/h (4 Bft) 93,62 %
30.01.2020 02:58 6,1 C 5,0 C 4,4 C 90 % 1012,8 hPa 0,0 l/m 0 min 0 min 0 W/m 16,1 km/h (3 Bft) 100,00 %
30.01.2020 03:00 6,1 C 5,0 C 4,4 C 90 % 1012,7 hPa 0,0 l/m 0 min 0 min 0 W/m 19,3 km/h (3 Bft) 100,00 %
30.01.2020 03:02 6,1 C 5,0 C 4,4 C 90 % 1012,7 hPa 0,0 l/m 0 min 0 min 0 W/m 22,5 km/h (4 Bft) 100,00 %
30.01.2020 03:04 6,1 C 5,0 C 4,4 C 90 % 1012,7 hPa 0,0 l/m 0 min 0 min 0 W/m 19,3 km/h (3 Bft) 100,00 %
30.01.2020 03:06 6,1 C 5,0 C 4,4 C 90 % 1012,8 hPa 0,0 l/m 0 min 0 min 0 W/m 19,3 km/h (3 Bft) 100,00 %
30.01.2020 03:08 6,1 C 5,0 C 4,4 C 90 % 1012,7 hPa 0,0 l/m 0 min 0 min 0 W/m 22,5 km/h (4 Bft) 100,00 %
30.01.2020 03:10 6,0 C 5,0 C 4,4 C 90 % 1012,8 hPa 0,0 l/m 0 min 0 min 0 W/m 22,5 km/h (4 Bft) 100,00 %
30.01.2020 03:12 6,0 C 5,0 C 4,4 C 90 % 1012,8 hPa 0,0 l/m 0 min 0 min 0 W/m 19,3 km/h (3 Bft) 100,00 %
30.01.2020 03:14 6,0 C 5,0 C 4,4 C 90 % 1012,8 hPa 0,0 l/m 0 min 0 min 0 W/m 25,7 km/h (4 Bft) 100,00 %
30.01.2020 03:16 6,0 C 5,0 C 4,4 C 90 % 1012,7 hPa 0,0 l/m 0 min 0 min 0 W/m 19,3 km/h (3 Bft) 100,00 %
30.01.2020 03:18 5,9 C 5,0 C 4,4 C 90 % 1012,6 hPa 0,0 l/m 0 min 0 min 0 W/m 19,3 km/h (3 Bft) 100,00 %
30.01.2020 03:20 5,9 C 5,0 C 4,4 C 90 % 1012,7 hPa 0,0 l/m 0 min 0 min 0 W/m 19,3 km/h (3 Bft) 100,00 %
30.01.2020 03:22 5,9 C 5,0 C 4,4 C 90 % 1012,6 hPa 0,0 l/m 0 min 0 min 0 W/m 35,4 km/h (5 Bft) 100,00 %
30.01.2020 03:24 5,9 C 5,6 C 4,4 C 90 % 1012,6 hPa 0,0 l/m 0 min 0 min 0 W/m 25,7 km/h (4 Bft) 100,00 %
30.01.2020 03:26 5,9 C 5,6 C 4,4 C 90 % 1012,6 hPa 0,0 l/m 0 min 0 min 0 W/m 29,0 km/h (5 Bft) 100,00 %
30.01.2020 03:28 5,9 C 5,6 C 4,4 C 90 % 1012,6 hPa 0,0 l/m 0 min 0 min 0 W/m 25,7 km/h (4 Bft) 97,87 %
30.01.2020 03:30 5,9 C 5,6 C 4,4 C 91 % 1012,6 hPa 0,0 l/m 0 min 0 min 0 W/m 16,1 km/h (3 Bft) 95,74 %
30.01.2020 03:32 5,9 C 5,6 C 4,4 C 91 % 1012,5 hPa 0,0 l/m 0 min 0 min 0 W/m 25,7 km/h (4 Bft) 95,74 %
30.01.2020 03:34 5,9 C 5,6 C 4,4 C 91 % 1012,5 hPa 0,0 l/m 0 min 0 min 0 W/m 22,5 km/h (4 Bft) 97,87 %
30.01.2020 03:36 5,9 C 5,6 C 4,4 C 91 % 1012,5 hPa 0,0 l/m 0 min 0 min 0 W/m 25,7 km/h (4 Bft) 97,83 %
30.01.2020 03:38 5,9 C 5,6 C 4,4 C 90 % 1012,5 hPa 0,0 l/m 0 min 0 min 0 W/m 19,3 km/h (3 Bft) 95,74 %
30.01.2020 03:40 6,0 C 5,6 C 5,0 C 90 % 1012,5 hPa 0,0 l/m 0 min 0 min 0 W/m 35,4 km/h (5 Bft) 97,87 %
30.01.2020 03:42 6,0 C 5,6 C 5,0 C 90 % 1012,5 hPa 0,0 l/m 0 min 0 min 0 W/m 25,7 km/h (4 Bft) 97,87 %
30.01.2020 03:44 6,0 C 5,6 C 5,0 C 91 % 1012,5 hPa 0,0 l/m 0 min 0 min 0 W/m 25,7 km/h (4 Bft) 95,74 %
30.01.2020 03:46 6,0 C 5,6 C 5,0 C 91 % 1012,6 hPa 0,0 l/m 0 min 0 min 0 W/m 12,9 km/h (3 Bft) 97,83 %
30.01.2020 03:48 6,0 C 5,6 C 5,0 C 91 % 1012,5 hPa 0,0 l/m 0 min 0 min 0 W/m 16,1 km/h (3 Bft) 97,87 %
30.01.2020 03:50 6,0 C 5,6 C 5,0 C 91 % 1012,5 hPa 0,0 l/m 0 min 0 min 0 W/m 16,1 km/h (3 Bft) 95,74 %
30.01.2020 03:52 6,1 C 5,6 C 5,0 C 91 % 1012,6 hPa 0,0 l/m 0 min 0 min 0 W/m 12,9 km/h (3 Bft) 95,74 %
30.01.2020 03:54 6,1 C 5,6 C 5,0 C 91 % 1012,5 hPa 0,0 l/m 0 min 0 min 0 W/m 25,7 km/h (4 Bft) 97,87 %
30.01.2020 03:56 6,1 C 5,6 C 5,0 C 91 % 1012,5 hPa 0,0 l/m 0 min 0 min 0 W/m 19,3 km/h (3 Bft) 97,87 %
30.01.2020 03:58 6,1 C 5,6 C 5,0 C 91 % 1012,5 hPa 0,0 l/m 0 min 0 min 0 W/m 25,7 km/h (4 Bft) 97,83 %
30.01.2020 04:00 6,1 C 5,6 C 5,0 C 91 % 1012,5 hPa 0,0 l/m 0 min 0 min 0 W/m 38,6 km/h (5 Bft) 97,87 %
30.01.2020 04:02 6,1 C 5,6 C 5,0 C 91 % 1012,5 hPa 0,0 l/m 0 min 0 min 0 W/m 19,3 km/h (3 Bft) 100,00 %
30.01.2020 04:04 6,1 C 5,6 C 5,0 C 91 % 1012,4 hPa 0,0 l/m 0 min 0 min 0 W/m 29,0 km/h (5 Bft) 97,87 %
30.01.2020 04:06 6,1 C 5,6 C 5,0 C 91 % 1012,5 hPa 0,0 l/m 0 min 0 min 0 W/m 22,5 km/h (4 Bft) 95,74 %
30.01.2020 04:08 6,1 C 5,6 C 5,0 C 90 % 1012,5 hPa 0,0 l/m 0 min 0 min 0 W/m 16,1 km/h (3 Bft) 97,87 %
30.01.2020 04:10 6,1 C 5,6 C 5,0 C 90 % 1012,3 hPa 0,0 l/m 0 min 0 min 0 W/m 35,4 km/h (5 Bft) 100,00 %
30.01.2020 04:12 6,2 C 5,6 C 5,0 C 90 % 1012,3 hPa 0,0 l/m 0 min 0 min 0 W/m 25,7 km/h (4 Bft) 100,00 %
30.01.2020 04:14 6,2 C 5,6 C 5,0 C 90 % 1012,4 hPa 0,0 l/m 0 min 0 min 0 W/m 19,3 km/h (3 Bft) 100,00 %
30.01.2020 04:16 6,2 C 5,6 C 5,0 C 90 % 1012,4 hPa 0,0 l/m 0 min 0 min 0 W/m 22,5 km/h (4 Bft) 93,62 %
30.01.2020 04:18 6,2 C 5,6 C 5,0 C 90 % 1012,4 hPa 0,0 l/m 0 min 0 min 0 W/m 22,5 km/h (4 Bft) 100,00 %
30.01.2020 04:20 6,2 C 5,6 C 5,0 C 90 % 1012,4 hPa 0,0 l/m 0 min 0 min 0 W/m 25,7 km/h (4 Bft) 100,00 %
30.01.2020 04:22 6,2 C 5,6 C 5,0 C 90 % 1012,4 hPa 0,0 l/m 0 min 0 min 0 W/m 22,5 km/h (4 Bft) 100,00 %
30.01.2020 04:24 6,2 C 5,6 C 5,0 C 90 % 1012,5 hPa 0,0 l/m 0 min 0 min 0 W/m 19,3 km/h (3 Bft) 97,87 %
30.01.2020 04:26 6,3 C 5,6 C 5,0 C 90 % 1012,5 hPa 0,0 l/m 0 min 0 min 0 W/m 16,1 km/h (3 Bft) 100,00 %
30.01.2020 04:28 6,3 C 5,6 C 5,0 C 90 % 1012,5 hPa 0,0 l/m 0 min 0 min 0 W/m 35,4 km/h (5 Bft) 97,87 %
30.01.2020 04:30 6,3 C 5,6 C 5,0 C 90 % 1012,5 hPa 0,0 l/m 0 min 0 min 0 W/m 19,3 km/h (3 Bft) 97,87 %
30.01.2020 04:32 6,3 C 5,6 C 5,0 C 90 % 1012,5 hPa 0,0 l/m 0 min 0 min 0 W/m 16,1 km/h (3 Bft) 97,87 %
30.01.2020 04:34 6,3 C 5,6 C 5,0 C 90 % 1012,5 hPa 0,0 l/m 0 min 0 min 0 W/m 25,7 km/h (4 Bft) 95,65 %
30.01.2020 04:36 6,3 C 5,6 C 5,0 C 90 % 1012,4 hPa 0,0 l/m 0 min 0 min 0 W/m 12,9 km/h (3 Bft) 97,87 %
30.01.2020 04:38 6,3 C 5,6 C 5,0 C 90 % 1012,4 hPa 0,0 l/m 0 min 0 min 0 W/m 16,1 km/h (3 Bft) 97,87 %
30.01.2020 04:40 6,3 C 5,6 C 5,0 C 90 % 1012,4 hPa 0,0 l/m 0 min 0 min 0 W/m 16,1 km/h (3 Bft) 97,87 %
30.01.2020 04:42 6,3 C 5,6 C 5,0 C 90 % 1012,4 hPa 0,0 l/m 0 min 0 min 0 W/m 16,1 km/h (3 Bft) 97,87 %
30.01.2020 04:44 6,3 C 5,6 C 5,0 C 90 % 1012,5 hPa 0,0 l/m 0 min 0 min 0 W/m 16,1 km/h (3 Bft) 97,87 %
30.01.2020 04:46 6,3 C 5,6 C 5,0 C 90 % 1012,5 hPa 0,0 l/m 0 min 0 min 0 W/m 16,1 km/h (3 Bft) 97,83 %
30.01.2020 04:48 6,4 C 5,6 C 5,0 C 90 % 1012,4 hPa 0,0 l/m 0 min 0 min 0 W/m 12,9 km/h (3 Bft) 95,74 %
30.01.2020 04:50 6,4 C 6,1 C 5,0 C 90 % 1012,4 hPa 0,0 l/m 0 min 0 min 0 W/m 19,3 km/h (3 Bft) 97,87 %
30.01.2020 04:52 6,4 C 6,1 C 5,0 C 90 % 1012,4 hPa 0,0 l/m 0 min 0 min 0 W/m 19,3 km/h (3 Bft) 97,87 %
30.01.2020 04:54 6,4 C 6,1 C 5,0 C 90 % 1012,3 hPa 0,0 l/m 0 min 0 min 0 W/m 16,1 km/h (3 Bft) 97,87 %
30.01.2020 04:56 6,4 C 6,1 C 5,0 C 90 % 1012,3 hPa 0,0 l/m 0 min 0 min 0 W/m 16,1 km/h (3 Bft) 97,83 %
30.01.2020 04:58 6,4 C 5,6 C 5,0 C 90 % 1012,2 hPa 0,0 l/m 0 min 0 min 0 W/m 16,1 km/h (3 Bft) 97,87 %
30.01.2020 05:00 6,4 C 6,1 C 5,0 C 90 % 1012,2 hPa 0,0 l/m 0 min 0 min 0 W/m 19,3 km/h (3 Bft) 97,87 %
30.01.2020 05:02 6,4 C 6,1 C 5,0 C 90 % 1012,2 hPa 0,0 l/m 0 min 0 min 0 W/m 19,3 km/h (3 Bft) 97,87 %
30.01.2020 05:04 6,4 C 6,1 C 5,0 C 89 % 1012,3 hPa 0,0 l/m 0 min 0 min 0 W/m 25,7 km/h (4 Bft) 97,87 %
30.01.2020 05:06 6,4 C 6,1 C 5,0 C 90 % 1012,3 hPa 0,0 l/m 0 min 0 min 0 W/m 19,3 km/h (3 Bft) 95,74 %
30.01.2020 05:08 6,5 C 6,1 C 5,6 C 90 % 1012,4 hPa 0,0 l/m 0 min 0 min 0 W/m 22,5 km/h (4 Bft) 97,83 %
30.01.2020 05:10 6,5 C 6,1 C 5,0 C 90 % 1012,4 hPa 0,0 l/m 0 min 0 min 0 W/m 16,1 km/h (3 Bft) 97,87 %
30.01.2020 05:12 6,5 C 6,1 C 5,0 C 89 % 1012,4 hPa 0,0 l/m 0 min 0 min 0 W/m 19,3 km/h (3 Bft) 95,74 %
30.01.2020 05:14 6,5 C 6,1 C 5,0 C 89 % 1012,3 hPa 0,0 l/m 0 min 0 min 0 W/m 16,1 km/h (3 Bft) 97,87 %
30.01.2020 05:16 6,5 C 6,1 C 5,0 C 89 % 1012,4 hPa 0,0 l/m 0 min 0 min 0 W/m 16,1 km/h (3 Bft) 97,87 %
30.01.2020 05:18 6,5 C 6,1 C 5,0 C 89 % 1012,3 hPa 0,0 l/m 0 min 0 min 0 W/m 16,1 km/h (3 Bft) 100,00 %
30.01.2020 05:20 6,5 C 6,1 C 5,0 C 89 % 1012,4 hPa 0,0 l/m 0 min 0 min 0 W/m 16,1 km/h (3 Bft) 100,00 %
30.01.2020 05:22 6,5 C 6,1 C 5,0 C 89 % 1012,4 hPa 0,0 l/m 0 min 0 min 0 W/m 12,9 km/h (3 Bft) 95,74 %
30.01.2020 05:24 6,5 C 6,1 C 5,0 C 89 % 1012,4 hPa 0,0 l/m 0 min 0 min 0 W/m 16,1 km/h (3 Bft) 100,00 %
30.01.2020 05:26 6,5 C 6,1 C 5,0 C 89 % 1012,3 hPa 0,0 l/m 0 min 0 min 0 W/m 16,1 km/h (3 Bft) 100,00 %
30.01.2020 05:28 6,5 C 6,1 C 5,0 C 89 % 1012,3 hPa 0,0 l/m 0 min 0 min 0 W/m 12,9 km/h (3 Bft) 100,00 %
30.01.2020 05:30 6,5 C 6,1 C 5,0 C 89 % 1012,3 hPa 0,0 l/m 0 min 0 min 0 W/m 12,9 km/h (3 Bft) 97,87 %
30.01.2020 05:32 6,5 C 6,1 C 5,0 C 89 % 1012,3 hPa 0,0 l/m 0 min 0 min 0 W/m 22,5 km/h (4 Bft) 95,65 %
30.01.2020 05:34 6,5 C 6,1 C 5,0 C 89 % 1012,3 hPa 0,0 l/m 0 min 0 min 0 W/m 16,1 km/h (3 Bft) 97,87 %
30.01.2020 05:36 6,5 C 6,1 C 5,0 C 89 % 1012,4 hPa 0,0 l/m 0 min 0 min 0 W/m 12,9 km/h (3 Bft) 95,74 %
30.01.2020 05:38 6,5 C 6,1 C 5,0 C 89 % 1012,4 hPa 0,0 l/m 0 min 0 min 0 W/m 16,1 km/h (3 Bft) 97,87 %
30.01.2020 05:40 6,5 C 6,1 C 5,0 C 89 % 1012,4 hPa 0,0 l/m 0 min 0 min 0 W/m 19,3 km/h (3 Bft) 95,74 %
30.01.2020 05:42 6,5 C 6,1 C 5,0 C 89 % 1012,4 hPa 0,0 l/m 0 min 0 min 0 W/m 12,9 km/h (3 Bft) 97,87 %
30.01.2020 05:44 6,5 C 6,1 C 5,0 C 89 % 1012,4 hPa 0,0 l/m 0 min 0 min 0 W/m 12,9 km/h (3 Bft) 97,83 %
30.01.2020 05:46 6,5 C 6,1 C 5,0 C 89 % 1012,4 hPa 0,0 l/m 0 min 0 min 0 W/m 16,1 km/h (3 Bft) 97,87 %
30.01.2020 05:48 6,5 C 6,1 C 5,0 C 89 % 1012,5 hPa 0,0 l/m 0 min 0 min 0 W/m 19,3 km/h (3 Bft) 97,87 %
30.01.2020 05:50 6,6 C 6,1 C 5,0 C 88 % 1012,5 hPa 0,0 l/m 0 min 0 min 0 W/m 12,9 km/h (3 Bft) 97,87 %
30.01.2020 05:52 6,5 C 6,1 C 5,0 C 88 % 1012,5 hPa 0,0 l/m 0 min 0 min 0 W/m 12,9 km/h (3 Bft) 97,87 %
30.01.2020 05:54 6,5 C 6,1 C 5,0 C 88 % 1012,6 hPa 0,0 l/m 0 min 0 min 0 W/m 19,3 km/h (3 Bft) 97,87 %
30.01.2020 05:56 6,5 C 6,1 C 5,0 C 88 % 1012,5 hPa 0,0 l/m 0 min 0 min 0 W/m 19,3 km/h (3 Bft) 97,83 %
30.01.2020 05:58 6,6 C 6,1 C 5,0 C 88 % 1012,5 hPa 0,0 l/m 0 min 0 min 0 W/m 16,1 km/h (3 Bft) 100,00 %
30.01.2020 06:00 6,6 C 6,1 C 5,0 C 88 % 1012,5 hPa 0,0 l/m 0 min 0 min 0 W/m 16,1 km/h (3 Bft) 97,87 %
30.01.2020 06:02 6,5 C 6,1 C 5,0 C 88 % 1012,4 hPa 0,0 l/m 0 min 0 min 0 W/m 29,0 km/h (5 Bft) 95,74 %
30.01.2020 06:04 6,6 C 6,1 C 5,0 C 88 % 1012,3 hPa 0,0 l/m 0 min 0 min 0 W/m 22,5 km/h (4 Bft) 95,74 %
30.01.2020 06:06 6,6 C 5,6 C 5,0 C 88 % 1012,2 hPa 0,0 l/m 0 min 0 min 0 W/m 19,3 km/h (3 Bft) 95,65 %
30.01.2020 06:08 6,5 C 5,6 C 5,0 C 88 % 1012,2 hPa 0,0 l/m 0 min 0 min 0 W/m 25,7 km/h (4 Bft) 93,62 %
30.01.2020 06:10 6,5 C 5,6 C 5,0 C 88 % 1012,2 hPa 0,0 l/m 0 min 0 min 0 W/m 22,5 km/h (4 Bft) 95,74 %
30.01.2020 06:12 6,5 C 5,6 C 5,0 C 88 % 1012,1 hPa 0,0 l/m 0 min 0 min 0 W/m 19,3 km/h (3 Bft) 95,74 %
30.01.2020 06:14 6,5 C 5,6 C 5,0 C 88 % 1012,0 hPa 0,0 l/m 0 min 0 min 0 W/m 16,1 km/h (3 Bft) 95,74 %
30.01.2020 06:16 6,5 C 5,6 C 5,0 C 88 % 1012,1 hPa 0,0 l/m 0 min 0 min 0 W/m 22,5 km/h (4 Bft) 95,74 %
30.01.2020 06:18 6,5 C 5,6 C 5,0 C 88 % 1012,1 hPa 0,0 l/m 0 min 0 min 0 W/m 12,9 km/h (3 Bft) 95,65 %
30.01.2020 06:20 6,4 C 5,6 C 5,0 C 88 % 1012,1 hPa 0,0 l/m 0 min 0 min 0 W/m 32,2 km/h (5 Bft) 95,74 %
30.01.2020 06:22 6,4 C 5,6 C 5,0 C 88 % 1012,1 hPa 0,0 l/m 0 min 0 min 0 W/m 22,5 km/h (4 Bft) 93,62 %
30.01.2020 06:24 6,4 C 5,6 C 5,0 C 88 % 1012,1 hPa 0,0 l/m 0 min 0 min 0 W/m 16,1 km/h (3 Bft) 95,74 %
30.01.2020 06:26 6,4 C 5,6 C 5,0 C 88 % 1012,1 hPa 0,0 l/m 0 min 0 min 0 W/m 16,1 km/h (3 Bft) 91,49 %
30.01.2020 06:28 6,3 C 5,6 C 5,0 C 88 % 1012,0 hPa 0,0 l/m 0 min 0 min 0 W/m 19,3 km/h (3 Bft) 97,87 %
30.01.2020 06:30 6,3 C 5,6 C 4,4 C 88 % 1012,1 hPa 0,0 l/m 0 min 0 min 0 W/m 22,5 km/h (4 Bft) 97,83 %
30.01.2020 06:32 6,3 C 5,6 C 5,0 C 88 % 1012,1 hPa 0,0 l/m 0 min 0 min 0 W/m 22,5 km/h (4 Bft) 97,87 %
30.01.2020 06:34 6,3 C 5,6 C 5,0 C 88 % 1012,1 hPa 0,0 l/m 0 min 0 min 0 W/m 16,1 km/h (3 Bft) 97,87 %
30.01.2020 06:36 6,3 C 5,6 C 5,0 C 88 % 1012,1 hPa 0,0 l/m 0 min 0 min 0 W/m 16,1 km/h (3 Bft) 95,74 %
30.01.2020 06:38 6,3 C 5,6 C 5,0 C 88 % 1012,0 hPa 0,0 l/m 0 min 0 min 0 W/m 16,1 km/h (3 Bft) 95,74 %
30.01.2020 06:40 6,2 C 5,6 C 5,0 C 88 % 1012,0 hPa 0,0 l/m 0 min 0 min 0 W/m 16,1 km/h (3 Bft) 97,87 %
30.01.2020 06:42 6,2 C 5,6 C 5,0 C 88 % 1012,1 hPa 0,0 l/m 0 min 0 min 0 W/m 22,5 km/h (4 Bft) 95,65 %
30.01.2020 06:44 6,2 C 5,6 C 5,0 C 88 % 1012,0 hPa 0,0 l/m 0 min 0 min 0 W/m 16,1 km/h (3 Bft) 97,87 %
30.01.2020 06:46 6,2 C 5,6 C 5,0 C 88 % 1012,0 hPa 0,0 l/m 0 min 0 min 0 W/m 22,5 km/h (4 Bft) 95,74 %
30.01.2020 06:48 6,2 C 5,6 C 5,0 C 88 % 1012,1 hPa 0,0 l/m 0 min 0 min 0 W/m 19,3 km/h (3 Bft) 100,00 %
30.01.2020 06:50 6,2 C 5,6 C 5,0 C 88 % 1012,1 hPa 0,0 l/m 0 min 0 min 0 W/m 19,3 km/h (3 Bft) 100,00 %
30.01.2020 06:52 6,2 C 5,6 C 5,0 C 88 % 1012,1 hPa 0,0 l/m 0 min 0 min 0 W/m 16,1 km/h (3 Bft) 100,00 %
30.01.2020 06:54 6,2 C 5,6 C 5,0 C 88 % 1012,2 hPa 0,0 l/m 0 min 0 min 0 W/m 25,7 km/h (4 Bft) 100,00 %
30.01.2020 06:56 6,2 C 5,6 C 5,0 C 88 % 1012,2 hPa 0,0 l/m 0 min 0 min 0 W/m 25,7 km/h (4 Bft) 100,00 %
30.01.2020 06:58 6,2 C 5,6 C 5,0 C 88 % 1012,2 hPa 0,0 l/m 0 min 0 min 0 W/m 16,1 km/h (3 Bft) 100,00 %
30.01.2020 07:00 6,2 C 5,6 C 5,0 C 88 % 1012,2 hPa 0,0 l/m 0 min 0 min 0 W/m 22,5 km/h (4 Bft) 100,00 %
30.01.2020 07:02 6,2 C 5,6 C 5,0 C 88 % 1012,2 hPa 0,0 l/m 0 min 0 min 0 W/m 19,3 km/h (3 Bft) 95,74 %
30.01.2020 07:04 6,2 C 5,6 C 5,0 C 88 % 1012,1 hPa 0,0 l/m 0 min 0 min 0 W/m 25,7 km/h (4 Bft) 100,00 %
30.01.2020 07:06 6,2 C 5,6 C 5,0 C 88 % 1012,1 hPa 0,0 l/m 0 min 0 min 0 W/m 22,5 km/h (4 Bft) 100,00 %
30.01.2020 07:08 6,2 C 5,6 C 5,0 C 88 % 1012,1 hPa 0,0 l/m 0 min 0 min 0 W/m 19,3 km/h (3 Bft) 100,00 %
30.01.2020 07:10 6,2 C 5,6 C 5,0 C 88 % 1012,2 hPa 0,0 l/m 0 min 0 min 0 W/m 29,0 km/h (5 Bft) 95,74 %
30.01.2020 07:12 6,2 C 5,6 C 5,0 C 88 % 1012,2 hPa 0,0 l/m 0 min 0 min 0 W/m 32,2 km/h (5 Bft) 97,87 %
30.01.2020 07:14 6,2 C 5,6 C 5,0 C 88 % 1012,1 hPa 0,0 l/m 0 min 0 min 0 W/m 29,0 km/h (5 Bft) 100,00 %
30.01.2020 07:16 6,3 C 5,6 C 5,0 C 88 % 1012,1 hPa 0,0 l/m 0 min 0 min 0 W/m 22,5 km/h (4 Bft) 97,83 %
30.01.2020 07:18 6,3 C 5,6 C 5,0 C 88 % 1012,2 hPa 0,0 l/m 0 min 0 min 0 W/m 25,7 km/h (4 Bft) 97,87 %
30.01.2020 07:20 6,3 C 5,6 C 5,0 C 88 % 1012,2 hPa 0,0 l/m 0 min 0 min 0 W/m 19,3 km/h (3 Bft) 97,87 %
30.01.2020 07:22 6,3 C 5,6 C 5,0 C 88 % 1012,1 hPa 0,0 l/m 0 min 0 min 0 W/m 32,2 km/h (5 Bft) 97,87 %
30.01.2020 07:24 6,3 C 5,6 C 5,0 C 88 % 1012,1 hPa 0,0 l/m 0 min 0 min 0 W/m 25,7 km/h (4 Bft) 97,87 %
30.01.2020 07:26 6,3 C 5,6 C 5,0 C 89 % 1012,0 hPa 0,0 l/m 0 min 0 min 0 W/m 16,1 km/h (3 Bft) 95,74 %
30.01.2020 07:28 6,3 C 5,6 C 5,0 C 89 % 1012,0 hPa 0,0 l/m 0 min 0 min 0 W/m 22,5 km/h (4 Bft) 95,65 %
30.01.2020 07:30 6,3 C 5,6 C 5,0 C 89 % 1012,0 hPa 0,0 l/m 0 min 0 min 0 W/m 25,7 km/h (4 Bft) 97,87 %
30.01.2020 07:32 6,3 C 5,6 C 5,0 C 89 % 1012,0 hPa 0,0 l/m 0 min 0 min 0 W/m 12,9 km/h (3 Bft) 89,36 %
30.01.2020 07:34 6,3 C 5,6 C 5,0 C 89 % 1012,0 hPa 0,0 l/m 0 min 0 min 0 W/m 12,9 km/h (3 Bft) 95,74 %
30.01.2020 07:36 6,4 C 5,6 C 5,0 C 89 % 1012,1 hPa 0,0 l/m 0 min 0 min 0 W/m 29,0 km/h (5 Bft) 95,74 %
30.01.2020 07:38 6,3 C 5,6 C 5,0 C 89 % 1012,0 hPa 0,0 l/m 0 min 0 min 0 W/m 29,0 km/h (5 Bft) 97,87 %
30.01.2020 07:40 6,4 C 5,6 C 5,0 C 89 % 1012,0 hPa 0,0 l/m 0 min 0 min 0 W/m 29,0 km/h (5 Bft) 97,83 %
30.01.2020 07:42 6,4 C 5,6 C 5,0 C 89 % 1012,0 hPa 0,0 l/m 0 min 0 min 0 W/m 16,1 km/h (3 Bft) 97,87 %
30.01.2020 07:44 6,4 C 5,6 C 5,0 C 89 % 1012,0 hPa 0,0 l/m 0 min 0 min 0 W/m 22,5 km/h (4 Bft) 97,87 %
30.01.2020 07:46 6,4 C 5,6 C 5,0 C 89 % 1012,0 hPa 0,0 l/m 0 min 0 min 0 W/m 25,7 km/h (4 Bft) 97,87 %
30.01.2020 07:48 6,4 C 5,6 C 5,0 C 89 % 1011,9 hPa 0,0 l/m 0 min 0 min 0 W/m 22,5 km/h (4 Bft) 97,87 %
30.01.2020 07:50 6,4 C 5,6 C 5,0 C 89 % 1012,0 hPa 0,0 l/m 0 min 0 min 0 W/m 16,1 km/h (3 Bft) 97,87 %
30.01.2020 07:52 6,4 C 5,6 C 5,0 C 89 % 1012,0 hPa 0,0 l/m 0 min 0 min 0 W/m 19,3 km/h (3 Bft) 95,65 %
30.01.2020 07:54 6,4 C 5,6 C 5,0 C 89 % 1011,9 hPa 0,0 l/m 0 min 0 min 0 W/m 16,1 km/h (3 Bft) 97,87 %
30.01.2020 07:56 6,4 C 5,6 C 5,0 C 89 % 1012,0 hPa 0,0 l/m 0 min 0 min 0 W/m 22,5 km/h (4 Bft) 95,74 %
30.01.2020 07:58 6,4 C 5,6 C 5,0 C 89 % 1012,0 hPa 0,0 l/m 0 min 0 min 0 W/m 19,3 km/h (3 Bft) 93,62 %
30.01.2020 08:00 6,4 C 5,6 C 5,0 C 89 % 1011,9 hPa 0,0 l/m 0 min 0 min 0 W/m 16,1 km/h (3 Bft) 97,87 %
30.01.2020 08:02 6,4 C 6,1 C 5,0 C 89 % 1012,0 hPa 0,0 l/m 0 min 0 min 0 W/m 29,0 km/h (5 Bft) 97,83 %
30.01.2020 08:04 6,4 C 5,6 C 5,0 C 89 % 1011,9 hPa 0,0 l/m 0 min 0 min 0 W/m 12,9 km/h (3 Bft) 97,87 %
30.01.2020 08:06 6,4 C 5,6 C 5,0 C 89 % 1011,9 hPa 0,0 l/m 0 min 0 min 0 W/m 19,3 km/h (3 Bft) 100,00 %
30.01.2020 08:08 6,4 C 6,1 C 5,0 C 89 % 1011,8 hPa 0,0 l/m 0 min 0 min 0 W/m 22,5 km/h (4 Bft) 100,00 %
30.01.2020 08:10 6,4 C 6,1 C 5,0 C 89 % 1011,8 hPa 0,0 l/m 0 min 0 min 0 W/m 22,5 km/h (4 Bft) 100,00 %
30.01.2020 08:12 6,5 C 6,1 C 5,0 C 89 % 1012,0 hPa 0,0 l/m 0 min 0 min 0 W/m 19,3 km/h (3 Bft) 100,00 %
30.01.2020 08:14 6,5 C 6,1 C 5,0 C 89 % 1011,8 hPa 0,0 l/m 0 min 0 min 0 W/m 35,4 km/h (5 Bft) 100,00 %
30.01.2020 08:16 6,5 C 6,1 C 5,0 C 89 % 1011,9 hPa 0,0 l/m 0 min 0 min 0 W/m 22,5 km/h (4 Bft) 100,00 %
30.01.2020 08:18 6,5 C 6,1 C 5,6 C 89 % 1012,0 hPa 0,0 l/m 0 min 0 min 0 W/m 29,0 km/h (5 Bft) 100,00 %
30.01.2020 08:20 6,5 C 6,1 C 5,6 C 89 % 1011,9 hPa 0,0 l/m 0 min 0 min 0 W/m 32,2 km/h (5 Bft) 100,00 %
30.01.2020 08:22 6,5 C 6,1 C 5,6 C 89 % 1011,8 hPa 0,0 l/m 0 min 0 min 3 W/m 19,3 km/h (3 Bft) 100,00 %
30.01.2020 08:24 6,5 C 6,1 C 5,0 C 89 % 1011,8 hPa 0,0 l/m 0 min 0 min 6 W/m 22,5 km/h (4 Bft) 100,00 %
30.01.2020 08:26 6,5 C 6,1 C 5,0 C 89 % 1011,9 hPa 0,0 l/m 0 min 0 min 7 W/m 22,5 km/h (4 Bft) 97,83 %
30.01.2020 08:28 6,5 C 6,1 C 5,0 C 89 % 1012,0 hPa 0,0 l/m 0 min 0 min 7 W/m 29,0 km/h (5 Bft) 100,00 %
30.01.2020 08:30 6,5 C 6,1 C 5,0 C 89 % 1011,9 hPa 0,0 l/m 0 min 0 min 10 W/m 29,0 km/h (5 Bft) 100,00 %
30.01.2020 08:32 6,5 C 6,1 C 5,6 C 89 % 1011,9 hPa 0,0 l/m 0 min 0 min 12 W/m 25,7 km/h (4 Bft) 100,00 %
30.01.2020 08:34 6,5 C 6,1 C 5,6 C 89 % 1011,9 hPa 0,0 l/m 0 min 0 min 14 W/m 29,0 km/h (5 Bft) 100,00 %
30.01.2020 08:36 6,5 C 6,1 C 5,6 C 89 % 1011,9 hPa 0,0 l/m 0 min 0 min 18 W/m 19,3 km/h (3 Bft) 97,87 %
30.01.2020 08:38 6,5 C 6,1 C 5,0 C 89 % 1011,9 hPa 0,0 l/m 0 min 0 min 19 W/m 22,5 km/h (4 Bft) 97,83 %
30.01.2020 08:40 6,5 C 6,1 C 5,0 C 89 % 1012,0 hPa 0,0 l/m 0 min 0 min 19 W/m 19,3 km/h (3 Bft) 89,36 %
30.01.2020 08:42 6,5 C 5,6 C 5,0 C 89 % 1011,9 hPa 0,0 l/m 0 min 0 min 22 W/m 19,3 km/h (3 Bft) 95,74 %
30.01.2020 08:44 6,5 C 6,1 C 5,0 C 89 % 1012,1 hPa 0,0 l/m 0 min 0 min 24 W/m 25,7 km/h (4 Bft) 95,74 %
30.01.2020 08:46 6,5 C 6,1 C 5,0 C 89 % 1012,1 hPa 0,0 l/m 0 min 0 min 25 W/m 25,7 km/h (4 Bft) 95,74 %
30.01.2020 08:48 6,5 C 6,1 C 5,0 C 89 % 1012,1 hPa 0,0 l/m 0 min 0 min 26 W/m 19,3 km/h (3 Bft) 97,87 %
30.01.2020 08:50 6,5 C 6,1 C 5,0 C 89 % 1012,1 hPa 0,0 l/m 0 min 0 min 28 W/m 19,3 km/h (3 Bft) 97,83 %
30.01.2020 08:52 6,5 C 6,1 C 5,0 C 89 % 1012,1 hPa 0,0 l/m 0 min 0 min 31 W/m 16,1 km/h (3 Bft) 97,87 %
30.01.2020 08:54 6,5 C 6,1 C 5,0 C 89 % 1012,1 hPa 0,0 l/m 0 min 0 min 33 W/m 25,7 km/h (4 Bft) 97,87 %
30.01.2020 08:56 6,5 C 6,1 C 5,6 C 89 % 1012,0 hPa 0,0 l/m 0 min 0 min 33 W/m 29,0 km/h (5 Bft) 95,74 %
30.01.2020 08:58 6,5 C 6,1 C 5,6 C 89 % 1012,1 hPa 0,0 l/m 0 min 0 min 31 W/m 25,7 km/h (4 Bft) 95,74 %
30.01.2020 09:00 6,5 C 6,1 C 5,6 C 89 % 1012,1 hPa 0,0 l/m 0 min 0 min 29 W/m 25,7 km/h (4 Bft) 97,87 %
30.01.2020 09:02 6,5 C 6,1 C 5,6 C 89 % 1012,1 hPa 0,0 l/m 0 min 0 min 27 W/m 16,1 km/h (3 Bft) 91,30 %
30.01.2020 09:04 6,5 C 6,1 C 5,6 C 89 % 1012,1 hPa 0,0 l/m 0 min 0 min 27 W/m 19,3 km/h (3 Bft) 95,74 %
30.01.2020 09:06 6,5 C 6,1 C 5,6 C 89 % 1012,1 hPa 0,0 l/m 0 min 0 min 26 W/m 25,7 km/h (4 Bft) 93,62 %
30.01.2020 09:08 6,5 C 6,1 C 5,6 C 89 % 1012,0 hPa 0,0 l/m 0 min 0 min 28 W/m 29,0 km/h (5 Bft) 95,74 %
30.01.2020 09:10 6,5 C 6,1 C 5,6 C 89 % 1011,9 hPa 0,0 l/m 0 min 0 min 32 W/m 16,1 km/h (3 Bft) 95,74 %
30.01.2020 09:12 6,5 C 6,1 C 5,6 C 89 % 1011,9 hPa 0,0 l/m 0 min 0 min 33 W/m 22,5 km/h (4 Bft) 95,65 %
30.01.2020 09:14 6,5 C 6,1 C 5,6 C 89 % 1011,9 hPa 0,0 l/m 0 min 0 min 34 W/m 16,1 km/h (3 Bft) 95,74 %
30.01.2020 09:16 6,5 C 6,1 C 5,6 C 89 % 1011,9 hPa 0,0 l/m 0 min 0 min 38 W/m 22,5 km/h (4 Bft) 93,62 %
30.01.2020 09:18 6,5 C 6,1 C 5,6 C 89 % 1011,8 hPa 0,0 l/m 0 min 0 min 39 W/m 22,5 km/h (4 Bft) 91,49 %
30.01.2020 09:20 6,5 C 6,1 C 5,6 C 89 % 1011,9 hPa 0,0 l/m 0 min 0 min 44 W/m 29,0 km/h (5 Bft) 95,74 %
30.01.2020 09:22 6,5 C 6,1 C 5,6 C 89 % 1011,8 hPa 0,0 l/m 0 min 0 min 50 W/m 19,3 km/h (3 Bft) 95,74 %
30.01.2020 09:24 6,5 C 6,1 C 5,6 C 89 % 1011,8 hPa 0,0 l/m 0 min 0 min 51 W/m 19,3 km/h (3 Bft) 95,65 %
30.01.2020 09:26 6,5 C 6,1 C 5,6 C 89 % 1011,8 hPa 0,0 l/m 0 min 0 min 57 W/m 19,3 km/h (3 Bft) 97,87 %
30.01.2020 09:28 6,5 C 6,1 C 5,6 C 89 % 1011,8 hPa 0,0 l/m 0 min 0 min 65 W/m 19,3 km/h (3 Bft) 97,87 %
30.01.2020 09:30 6,5 C 6,1 C 5,6 C 89 % 1011,8 hPa 0,0 l/m 0 min 0 min 66 W/m 16,1 km/h (3 Bft) 95,74 %
30.01.2020 09:32 6,5 C 6,1 C 5,6 C 89 % 1011,8 hPa 0,0 l/m 0 min 0 min 68 W/m 16,1 km/h (3 Bft) 95,74 %
30.01.2020 09:34 6,6 C 6,7 C 5,6 C 89 % 1011,7 hPa 0,0 l/m 0 min 0 min 77 W/m 16,1 km/h (3 Bft) 97,87 %
30.01.2020 09:36 6,6 C 6,7 C 5,6 C 89 % 1011,8 hPa 0,0 l/m 0 min 0 min 77 W/m 25,7 km/h (4 Bft) 97,83 %
30.01.2020 09:38 6,6 C 6,7 C 5,6 C 89 % 1011,6 hPa 0,0 l/m 0 min 0 min 86 W/m 22,5 km/h (4 Bft) 97,87 %
30.01.2020 09:40 6,6 C 6,7 C 5,6 C 89 % 1011,6 hPa 0,0 l/m 0 min 0 min 95 W/m 16,1 km/h (3 Bft) 95,74 %
30.01.2020 09:42 6,6 C 6,7 C 5,6 C 89 % 1011,6 hPa 0,0 l/m 0 min 0 min 96 W/m 12,9 km/h (3 Bft) 97,87 %
30.01.2020 09:44 6,6 C 7,2 C 5,6 C 89 % 1011,6 hPa 0,0 l/m 2 min 0 min 108 W/m 16,1 km/h (3 Bft) 97,87 %
30.01.2020 09:46 6,6 C 7,2 C 6,1 C 89 % 1011,7 hPa 0,0 l/m 2 min 0 min 115 W/m 16,1 km/h (3 Bft) 97,87 %
30.01.2020 09:48 6,7 C 7,2 C 6,1 C 89 % 1011,6 hPa 0,0 l/m 0 min 0 min 102 W/m 12,9 km/h (3 Bft) 95,65 %
30.01.2020 09:50 6,7 C 6,7 C 6,1 C 89 % 1011,6 hPa 0,0 l/m 0 min 0 min 91 W/m 16,1 km/h (3 Bft) 97,87 %
30.01.2020 09:52 6,7 C 6,7 C 6,1 C 89 % 1011,5 hPa 0,0 l/m 0 min 0 min 87 W/m 6,4 km/h (2 Bft) 97,87 %
30.01.2020 09:54 6,7 C 7,2 C 6,1 C 89 % 1011,5 hPa 0,0 l/m 0 min 0 min 93 W/m 16,1 km/h (3 Bft) 100,00 %
30.01.2020 09:56 6,7 C 7,2 C 6,1 C 89 % 1011,5 hPa 0,0 l/m 2 min 0 min 112 W/m 16,1 km/h (3 Bft) 97,87 %
30.01.2020 09:58 6,8 C 7,2 C 6,1 C 89 % 1011,5 hPa 0,0 l/m 0 min 0 min 111 W/m 12,9 km/h (3 Bft) 97,83 %
30.01.2020 10:00 6,8 C 7,2 C 6,1 C 89 % 1011,4 hPa 0,0 l/m 0 min 0 min 105 W/m 19,3 km/h (3 Bft) 95,74 %
30.01.2020 10:02 6,8 C 7,2 C 6,1 C 89 % 1011,5 hPa 0,0 l/m 0 min 0 min 92 W/m 19,3 km/h (3 Bft) 97,87 %
30.01.2020 10:04 6,8 C 7,2 C 6,1 C 89 % 1011,5 hPa 0,0 l/m 0 min 0 min 91 W/m 19,3 km/h (3 Bft) 100,00 %
30.01.2020 10:06 6,8 C 7,2 C 6,1 C 89 % 1011,5 hPa 0,0 l/m 0 min 0 min 96 W/m 16,1 km/h (3 Bft) 97,87 %
30.01.2020 10:08 6,8 C 7,2 C 6,1 C 89 % 1011,5 hPa 0,0 l/m 0 min 0 min 99 W/m 12,9 km/h (3 Bft) 100,00 %
30.01.2020 10:10 6,9 C 7,2 C 6,1 C 89 % 1011,4 hPa 0,0 l/m 0 min 0 min 102 W/m 16,1 km/h (3 Bft) 97,83 %
30.01.2020 10:12 6,9 C 7,2 C 6,1 C 89 % 1011,4 hPa 0,0 l/m 0 min 0 min 102 W/m 19,3 km/h (3 Bft) 100,00 %
30.01.2020 10:14 6,9 C 7,2 C 6,1 C 89 % 1011,4 hPa 0,0 l/m 0 min 0 min 111 W/m 19,3 km/h (3 Bft) 100,00 %
30.01.2020 10:16 6,9 C 7,2 C 6,7 C 89 % 1011,4 hPa 0,0 l/m 0 min 0 min 120 W/m 25,7 km/h (4 Bft) 97,87 %
30.01.2020 10:18 6,9 C 7,2 C 6,7 C 89 % 1011,4 hPa 0,0 l/m 0 min 0 min 115 W/m 12,9 km/h (3 Bft) 97,87 %
30.01.2020 10:20 7,0 C 7,2 C 6,7 C 89 % 1011,3 hPa 0,0 l/m 0 min 0 min 112 W/m 22,5 km/h (4 Bft) 95,74 %
30.01.2020 10:22 7,0 C 7,2 C 6,7 C 88 % 1011,2 hPa 0,0 l/m 0 min 0 min 107 W/m 16,1 km/h (3 Bft) 97,83 %
30.01.2020 10:24 7,1 C 7,2 C 6,7 C 89 % 1011,2 hPa 0,0 l/m 0 min 0 min 105 W/m 22,5 km/h (4 Bft) 95,74 %
30.01.2020 10:26 7,1 C 7,2 C 6,7 C 88 % 1011,2 hPa 0,0 l/m 0 min 0 min 109 W/m 16,1 km/h (3 Bft) 97,87 %
30.01.2020 10:28 7,1 C 7,2 C 6,7 C 88 % 1011,2 hPa 0,0 l/m 0 min 0 min 112 W/m 19,3 km/h (3 Bft) 97,87 %
30.01.2020 10:30 7,1 C 7,2 C 6,7 C 88 % 1011,2 hPa 0,0 l/m 0 min 0 min 113 W/m 25,7 km/h (4 Bft) 97,87 %
30.01.2020 10:32 7,2 C 7,2 C 6,7 C 88 % 1011,1 hPa 0,0 l/m 0 min 0 min 106 W/m 19,3 km/h (3 Bft) 97,87 %
30.01.2020 10:34 7,2 C 7,2 C 6,7 C 88 % 1011,1 hPa 0,0 l/m 0 min 0 min 101 W/m 16,1 km/h (3 Bft) 95,65 %
30.01.2020 10:36 7,2 C 7,2 C 6,7 C 88 % 1011,2 hPa 0,0 l/m 0 min 0 min 94 W/m 19,3 km/h (3 Bft) 97,87 %
30.01.2020 10:38 7,3 C 7,8 C 6,7 C 88 % 1011,1 hPa 0,0 l/m 0 min 0 min 100 W/m 22,5 km/h (4 Bft) 95,74 %
30.01.2020 10:40 7,3 C 7,8 C 6,7 C 88 % 1011,1 hPa 0,0 l/m 0 min 0 min 102 W/m 25,7 km/h (4 Bft) 97,87 %
30.01.2020 10:42 7,3 C 7,8 C 6,7 C 88 % 1011,2 hPa 0,0 l/m 0 min 0 min 100 W/m 22,5 km/h (4 Bft) 97,87 %
30.01.2020 10:44 7,3 C 7,8 C 6,7 C 88 % 1011,2 hPa 0,0 l/m 0 min 0 min 98 W/m 19,3 km/h (3 Bft) 97,87 %
30.01.2020 10:46 7,4 C 7,8 C 6,7 C 88 % 1011,2 hPa 0,0 l/m 0 min 0 min 97 W/m 16,1 km/h (3 Bft) 95,65 %
30.01.2020 10:48 7,4 C 7,8 C 6,7 C 87 % 1011,1 hPa 0,0 l/m 0 min 0 min 94 W/m 22,5 km/h (4 Bft) 97,87 %
30.01.2020 10:50 7,4 C 7,8 C 6,7 C 87 % 1011,2 hPa 0,0 l/m 0 min 0 min 93 W/m 16,1 km/h (3 Bft) 95,74 %
30.01.2020 10:52 7,4 C 7,8 C 6,7 C 87 % 1011,1 hPa 0,0 l/m 0 min 0 min 98 W/m 12,9 km/h (3 Bft) 97,87 %
30.01.2020 10:54 7,5 C 7,8 C 6,7 C 87 % 1011,1 hPa 0,0 l/m 0 min 0 min 106 W/m 22,5 km/h (4 Bft) 97,87 %
30.01.2020 10:56 7,5 C 8,3 C 6,7 C 87 % 1011,1 hPa 0,0 l/m 0 min 0 min 112 W/m 12,9 km/h (3 Bft) 97,87 %
30.01.2020 10:58 7,5 C 8,3 C 6,7 C 87 % 1011,1 hPa 0,0 l/m 0 min 0 min 120 W/m 29,0 km/h (5 Bft) 97,83 %
30.01.2020 11:00 7,6 C 8,9 C 6,7 C 87 % 1011,0 hPa 0,0 l/m 2 min 0 min 168 W/m 25,7 km/h (4 Bft) 97,87 %
30.01.2020 11:02 7,6 C 9,4 C 6,7 C 87 % 1011,0 hPa 0,0 l/m 2 min 0 min 196 W/m 16,1 km/h (3 Bft) 95,74 %
30.01.2020 11:04 7,6 C 9,4 C 7,2 C 87 % 1010,9 hPa 0,0 l/m 2 min 0 min 212 W/m 12,9 km/h (3 Bft) 97,87 %
30.01.2020 11:06 7,7 C 9,4 C 7,2 C 87 % 1011,0 hPa 0,0 l/m 2 min 0 min 215 W/m 25,7 km/h (4 Bft) 95,74 %
30.01.2020 11:08 7,8 C 9,4 C 7,2 C 87 % 1010,9 hPa 0,0 l/m 2 min 0 min 198 W/m 16,1 km/h (3 Bft) 95,74 %
30.01.2020 11:10 7,8 C 10,0 C 7,2 C 87 % 1010,9 hPa 0,0 l/m 2 min 0 min 187 W/m 12,9 km/h (3 Bft) 100,00 %
30.01.2020 11:12 7,9 C 10,6 C 7,2 C 87 % 1010,9 hPa 0,0 l/m 2 min 0 min 183 W/m 19,3 km/h (3 Bft) 97,87 %
30.01.2020 11:14 8,0 C 10,6 C 7,2 C 87 % 1010,8 hPa 0,0 l/m 2 min 0 min 203 W/m 12,9 km/h (3 Bft) 97,92 %
30.01.2020 11:16 8,1 C 10,6 C 7,8 C 87 % 1010,8 hPa 0,0 l/m 2 min 0 min 198 W/m 16,1 km/h (3 Bft) 95,74 %
30.01.2020 11:18 8,1 C 10,6 C 7,8 C 87 % 1010,8 hPa 0,0 l/m 2 min 0 min 209 W/m 16,1 km/h (3 Bft) 97,87 %
30.01.2020 11:20 8,2 C 10,6 C 7,8 C 87 % 1010,8 hPa 0,0 l/m 2 min 0 min 217 W/m 12,9 km/h (3 Bft) 95,74 %
30.01.2020 11:22 8,3 C 10,6 C 7,8 C 87 % 1010,7 hPa 0,0 l/m 2 min 0 min 232 W/m 19,3 km/h (3 Bft) 97,83 %
30.01.2020 11:24 8,4 C 10,6 C 7,8 C 86 % 1010,8 hPa 0,0 l/m 2 min 0 min 233 W/m 22,5 km/h (4 Bft) 97,87 %
30.01.2020 11:26 8,5 C 11,1 C 7,8 C 86 % 1010,8 hPa 0,0 l/m 2 min 0 min 263 W/m 19,3 km/h (3 Bft) 97,87 %
30.01.2020 11:28 8,6 C 10,6 C 7,8 C 86 % 1010,8 hPa 0,0 l/m 2 min 0 min 213 W/m 22,5 km/h (4 Bft) 97,87 %
30.01.2020 11:30 8,6 C 10,6 C 7,8 C 86 % 1010,8 hPa 0,0 l/m 2 min 0 min 192 W/m 22,5 km/h (4 Bft) 97,87 %
30.01.2020 11:32 8,7 C 10,6 C 7,8 C 85 % 1010,8 hPa 0,0 l/m 2 min 0 min 207 W/m 32,2 km/h (5 Bft) 95,65 %
30.01.2020 11:34 8,8 C 10,6 C 7,8 C 85 % 1010,8 hPa 0,0 l/m 2 min 0 min 233 W/m 19,3 km/h (3 Bft) 100,00 %
30.01.2020 11:36 8,8 C 10,6 C 7,8 C 85 % 1010,7 hPa 0,0 l/m 2 min 0 min 224 W/m 19,3 km/h (3 Bft) 97,87 %
30.01.2020 11:38 8,9 C 11,1 C 8,3 C 85 % 1010,7 hPa 0,0 l/m 2 min 0 min 235 W/m 16,1 km/h (3 Bft) 95,74 %
30.01.2020 11:40 8,9 C 11,1 C 8,3 C 85 % 1010,7 hPa 0,0 l/m 2 min 0 min 241 W/m 29,0 km/h (5 Bft) 97,87 %
30.01.2020 11:42 9,1 C 10,6 C 8,3 C 84 % 1010,7 hPa 0,0 l/m 2 min 0 min 224 W/m 25,7 km/h (4 Bft) 97,87 %
30.01.2020 11:44 9,1 C 10,6 C 8,3 C 84 % 1010,7 hPa 0,0 l/m 2 min 0 min 207 W/m 25,7 km/h (4 Bft) 97,83 %
30.01.2020 11:46 9,2 C 11,1 C 8,3 C 84 % 1010,7 hPa 0,0 l/m 2 min 0 min 215 W/m 22,5 km/h (4 Bft) 97,87 %
30.01.2020 11:48 9,2 C 11,1 C 8,3 C 84 % 1010,6 hPa 0,0 l/m 2 min 0 min 235 W/m 22,5 km/h (4 Bft) 97,87 %
30.01.2020 11:50 9,3 C 11,7 C 8,3 C 83 % 1010,6 hPa 0,0 l/m 2 min 0 min 259 W/m 16,1 km/h (3 Bft) 95,74 %
30.01.2020 11:52 9,3 C 11,7 C 8,3 C 84 % 1010,6 hPa 0,0 l/m 2 min 0 min 234 W/m 16,1 km/h (3 Bft) 97,87 %
30.01.2020 11:54 9,4 C 12,8 C 8,3 C 84 % 1010,6 hPa 0,0 l/m 2 min 0 min 267 W/m 16,1 km/h (3 Bft) 95,74 %
30.01.2020 11:56 9,4 C 12,8 C 8,9 C 84 % 1010,5 hPa 0,0 l/m 2 min 0 min 309 W/m 16,1 km/h (3 Bft) 97,83 %
30.01.2020 11:58 9,5 C 11,7 C 8,9 C 83 % 1010,5 hPa 0,0 l/m 2 min 0 min 234 W/m 25,7 km/h (4 Bft) 95,74 %
30.01.2020 12:00 9,6 C 11,7 C 8,9 C 83 % 1010,5 hPa 0,0 l/m 2 min 0 min 213 W/m 29,0 km/h (5 Bft) 95,74 %
30.01.2020 12:02 9,6 C 12,2 C 8,9 C 83 % 1010,4 hPa 0,0 l/m 2 min 0 min 314 W/m 25,7 km/h (4 Bft) 95,74 %
30.01.2020 12:04 9,7 C 12,2 C 8,9 C 82 % 1010,4 hPa 0,0 l/m 2 min 0 min 322 W/m 22,5 km/h (4 Bft) 97,87 %
30.01.2020 12:06 9,7 C 12,8 C 8,9 C 82 % 1010,3 hPa 0,0 l/m 2 min 0 min 358 W/m 29,0 km/h (5 Bft) 97,87 %
30.01.2020 12:08 9,8 C 12,8 C 9,4 C 82 % 1010,3 hPa 0,0 l/m 2 min 0 min 364 W/m 29,0 km/h (5 Bft) 97,83 %
30.01.2020 12:10 9,8 C 12,2 C 9,4 C 82 % 1010,2 hPa 0,0 l/m 2 min 0 min 318 W/m 19,3 km/h (3 Bft) 97,87 %
30.01.2020 12:12 9,9 C 11,1 C 9,4 C 82 % 1010,2 hPa 0,0 l/m 2 min 0 min 232 W/m 19,3 km/h (3 Bft) 97,87 %
30.01.2020 12:14 10,0 C 10,6 C 9,4 C 82 % 1010,1 hPa 0,0 l/m 2 min 0 min 201 W/m 29,0 km/h (5 Bft) 95,74 %
30.01.2020 12:16 10,0 C 10,6 C 9,4 C 81 % 1010,0 hPa 0,0 l/m 2 min 0 min 201 W/m 32,2 km/h (5 Bft) 97,87 %
30.01.2020 12:18 10,0 C 10,0 C 8,9 C 81 % 1009,9 hPa 0,0 l/m 0 min 0 min 190 W/m 38,6 km/h (5 Bft) 97,87 %
30.01.2020 12:20 10,0 C 10,6 C 8,9 C 81 % 1009,9 hPa 0,0 l/m 2 min 0 min 209 W/m 22,5 km/h (4 Bft) 97,83 %
30.01.2020 12:22 9,9 C 10,6 C 8,9 C 81 % 1010,0 hPa 0,0 l/m 2 min 0 min 218 W/m 25,7 km/h (4 Bft) 95,74 %
30.01.2020 12:24 10,0 C 10,6 C 8,9 C 81 % 1010,0 hPa 0,0 l/m 2 min 0 min 230 W/m 19,3 km/h (3 Bft) 97,87 %
30.01.2020 12:26 10,0 C 10,6 C 9,4 C 81 % 1010,0 hPa 0,0 l/m 2 min 0 min 210 W/m 19,3 km/h (3 Bft) 97,87 %
30.01.2020 12:28 10,0 C 11,1 C 9,4 C 81 % 1009,9 hPa 0,0 l/m 2 min 0 min 228 W/m 19,3 km/h (3 Bft) 97,87 %
30.01.2020 12:30 10,0 C 11,1 C 9,4 C 81 % 1009,9 hPa 0,0 l/m 2 min 0 min 250 W/m 16,1 km/h (3 Bft) 100,00 %
30.01.2020 12:32 10,0 C 11,1 C 9,4 C 81 % 1009,9 hPa 0,0 l/m 2 min 0 min 232 W/m 29,0 km/h (5 Bft) 100,00 %
30.01.2020 12:34 10,1 C 11,1 C 9,4 C 81 % 1009,8 hPa 0,0 l/m 2 min 0 min 217 W/m 16,1 km/h (3 Bft) 100,00 %
30.01.2020 12:36 10,1 C 11,1 C 9,4 C 81 % 1009,8 hPa 0,0 l/m 2 min 0 min 211 W/m 19,3 km/h (3 Bft) 91,49 %
30.01.2020 12:38 10,1 C 11,1 C 10,0 C 81 % 1009,8 hPa 0,0 l/m 2 min 0 min 201 W/m 22,5 km/h (4 Bft) 100,00 %
30.01.2020 12:40 10,1 C 11,1 C 10,0 C 81 % 1009,8 hPa 0,0 l/m 2 min 0 min 201 W/m 22,5 km/h (4 Bft) 100,00 %
30.01.2020 12:42 10,1 C 10,6 C 10,0 C 81 % 1009,8 hPa 0,0 l/m 0 min 0 min 191 W/m 22,5 km/h (4 Bft) 100,00 %
30.01.2020 12:44 10,1 C 10,6 C 10,0 C 81 % 1009,8 hPa 0,0 l/m 0 min 0 min 182 W/m 29,0 km/h (5 Bft) 100,00 %
30.01.2020 12:46 10,1 C 10,6 C 10,0 C 81 % 1009,8 hPa 0,0 l/m 0 min 0 min 176 W/m 25,7 km/h (4 Bft) 100,00 %
30.01.2020 12:48 10,1 C 10,6 C 10,0 C 81 % 1009,7 hPa 0,0 l/m 0 min 0 min 171 W/m 22,5 km/h (4 Bft) 97,87 %
30.01.2020 12:50 10,1 C 10,6 C 10,0 C 81 % 1009,7 hPa 0,0 l/m 0 min 0 min 177 W/m 29,0 km/h (5 Bft) 100,00 %
30.01.2020 12:52 10,1 C 10,6 C 10,0 C 81 % 1009,7 hPa 0,0 l/m 0 min 0 min 176 W/m 29,0 km/h (5 Bft) 100,00 %
30.01.2020 12:54 10,1 C 10,0 C 9,4 C 80 % 1009,6 hPa 0,0 l/m 0 min 0 min 180 W/m 32,2 km/h (5 Bft) 100,00 %
30.01.2020 12:56 10,1 C 10,6 C 10,0 C 80 % 1009,5 hPa 0,0 l/m 0 min 0 min 181 W/m 16,1 km/h (3 Bft) 100,00 %
30.01.2020 12:58 10,1 C 10,6 C 10,0 C 81 % 1009,5 hPa 0,0 l/m 0 min 0 min 178 W/m 22,5 km/h (4 Bft) 100,00 %
30.01.2020 13:00 10,2 C 10,6 C 10,0 C 81 % 1009,5 hPa 0,0 l/m 0 min 0 min 181 W/m 19,3 km/h (3 Bft) 97,87 %
30.01.2020 13:02 10,2 C 10,6 C 9,4 C 81 % 1009,3 hPa 0,0 l/m 0 min 0 min 182 W/m 19,3 km/h (3 Bft) 100,00 %
30.01.2020 13:04 10,2 C 10,6 C 9,4 C 81 % 1009,2 hPa 0,0 l/m 0 min 0 min 182 W/m 29,0 km/h (5 Bft) 100,00 %
30.01.2020 13:06 10,2 C 10,6 C 9,4 C 81 % 1009,3 hPa 0,0 l/m 0 min 0 min 177 W/m 19,3 km/h (3 Bft) 100,00 %
30.01.2020 13:08 10,2 C 10,6 C 9,4 C 81 % 1009,3 hPa 0,0 l/m 0 min 0 min 172 W/m 29,0 km/h (5 Bft) 100,00 %
30.01.2020 13:10 10,1 C 10,6 C 9,4 C 81 % 1009,2 hPa 0,0 l/m 0 min 0 min 176 W/m 25,7 km/h (4 Bft) 100,00 %
30.01.2020 13:12 10,1 C 10,6 C 9,4 C 81 % 1009,1 hPa 0,0 l/m 0 min 0 min 179 W/m 29,0 km/h (5 Bft) 100,00 %
30.01.2020 13:14 10,1 C 10,6 C 9,4 C 81 % 1009,0 hPa 0,0 l/m 0 min 0 min 170 W/m 25,7 km/h (4 Bft) 100,00 %
30.01.2020 13:16 10,1 C 10,6 C 9,4 C 81 % 1009,0 hPa 0,0 l/m 0 min 0 min 162 W/m 25,7 km/h (4 Bft) 100,00 %
30.01.2020 13:18 10,1 C 10,0 C 9,4 C 81 % 1008,9 hPa 0,0 l/m 0 min 0 min 167 W/m 25,7 km/h (4 Bft) 100,00 %
30.01.2020 13:20 10,1 C 10,0 C 9,4 C 81 % 1008,8 hPa 0,0 l/m 0 min 0 min 166 W/m 22,5 km/h (4 Bft) 100,00 %
30.01.2020 13:22 10,1 C 10,6 C 9,4 C 81 % 1008,9 hPa 0,0 l/m 0 min 0 min 162 W/m 19,3 km/h (3 Bft) 97,87 %
30.01.2020 13:24 10,1 C 10,0 C 9,4 C 81 % 1008,8 hPa 0,0 l/m 0 min 0 min 162 W/m 22,5 km/h (4 Bft) 100,00 %
30.01.2020 13:26 10,1 C 10,0 C 9,4 C 81 % 1008,7 hPa 0,0 l/m 0 min 0 min 160 W/m 22,5 km/h (4 Bft) 100,00 %
30.01.2020 13:28 10,1 C 10,0 C 9,4 C 81 % 1008,7 hPa 0,0 l/m 0 min 0 min 156 W/m 22,5 km/h (4 Bft) 97,87 %
30.01.2020 13:30 10,1 C 10,0 C 9,4 C 81 % 1008,6 hPa 0,0 l/m 0 min 0 min 157 W/m 22,5 km/h (4 Bft) 97,83 %
30.01.2020 13:32 10,1 C 10,0 C 9,4 C 81 % 1008,6 hPa 0,0 l/m 0 min 0 min 151 W/m 19,3 km/h (3 Bft) 97,87 %
30.01.2020 13:34 10,1 C 10,6 C 9,4 C 81 % 1008,5 hPa 0,0 l/m 0 min 0 min 149 W/m 29,0 km/h (5 Bft) 97,87 %
30.01.2020 13:36 10,1 C 10,0 C 9,4 C 81 % 1008,5 hPa 0,0 l/m 0 min 0 min 149 W/m 22,5 km/h (4 Bft) 97,87 %
30.01.2020 13:38 10,1 C 10,0 C 9,4 C 81 % 1008,5 hPa 0,0 l/m 0 min 0 min 152 W/m 29,0 km/h (5 Bft) 95,74 %
30.01.2020 13:40 10,1 C 10,0 C 9,4 C 81 % 1008,5 hPa 0,0 l/m 0 min 0 min 147 W/m 16,1 km/h (3 Bft) 97,83 %
30.01.2020 13:42 10,1 C 10,6 C 9,4 C 81 % 1008,5 hPa 0,0 l/m 0 min 0 min 146 W/m 22,5 km/h (4 Bft) 97,87 %
30.01.2020 13:44 10,1 C 10,6 C 9,4 C 81 % 1008,5 hPa 0,0 l/m 0 min 0 min 150 W/m 22,5 km/h (4 Bft) 95,74 %
30.01.2020 13:46 10,1 C 10,6 C 9,4 C 81 % 1008,4 hPa 0,0 l/m 0 min 0 min 152 W/m 25,7 km/h (4 Bft) 97,87 %
30.01.2020 13:48 10,1 C 10,6 C 9,4 C 81 % 1008,3 hPa 0,0 l/m 0 min 0 min 151 W/m 22,5 km/h (4 Bft) 95,74 %
30.01.2020 13:50 10,1 C 10,6 C 9,4 C 81 % 1008,3 hPa 0,0 l/m 0 min 0 min 152 W/m 25,7 km/h (4 Bft) 97,87 %
30.01.2020 13:52 10,1 C 10,6 C 9,4 C 81 % 1008,2 hPa 0,0 l/m 0 min 0 min 166 W/m 32,2 km/h (5 Bft) 97,83 %
30.01.2020 13:54 10,1 C 10,6 C 9,4 C 81 % 1008,2 hPa 0,0 l/m 0 min 0 min 186 W/m 22,5 km/h (4 Bft) 93,62 %
30.01.2020 13:56 10,1 C 11,1 C 9,4 C 81 % 1008,1 hPa 0,0 l/m 0 min 0 min 182 W/m 22,5 km/h (4 Bft) 95,74 %
30.01.2020 13:58 10,1 C 11,1 C 9,4 C 81 % 1008,0 hPa 0,0 l/m 2 min 0 min 191 W/m 19,3 km/h (3 Bft) 95,74 %
30.01.2020 14:00 10,2 C 11,1 C 9,4 C 80 % 1008,0 hPa 0,0 l/m 2 min 0 min 212 W/m 29,0 km/h (5 Bft) 95,74 %
30.01.2020 14:02 10,2 C 11,1 C 9,4 C 80 % 1008,0 hPa 0,0 l/m 2 min 0 min 209 W/m 22,5 km/h (4 Bft) 97,87 %
30.01.2020 14:04 10,2 C 11,1 C 10,0 C 80 % 1008,0 hPa 0,0 l/m 2 min 0 min 211 W/m 35,4 km/h (5 Bft) 97,83 %
30.01.2020 14:06 10,3 C 11,7 C 10,0 C 80 % 1007,9 hPa 0,0 l/m 2 min 0 min 224 W/m 25,7 km/h (4 Bft) 95,74 %
30.01.2020 14:08 10,3 C 11,7 C 10,0 C 80 % 1007,9 hPa 0,0 l/m 2 min 0 min 222 W/m 22,5 km/h (4 Bft) 93,62 %
30.01.2020 14:10 10,3 C 11,7 C 10,0 C 80 % 1007,7 hPa 0,0 l/m 2 min 0 min 224 W/m 29,0 km/h (5 Bft) 93,62 %
30.01.2020 14:12 10,4 C 11,7 C 10,0 C 80 % 1007,6 hPa 0,0 l/m 2 min 0 min 214 W/m 22,5 km/h (4 Bft) 97,87 %
30.01.2020 14:14 10,4 C 11,7 C 10,0 C 79 % 1007,6 hPa 0,0 l/m 2 min 0 min 218 W/m 29,0 km/h (5 Bft) 97,87 %
30.01.2020 14:16 10,4 C 11,7 C 10,0 C 79 % 1007,6 hPa 0,0 l/m 2 min 0 min 205 W/m 19,3 km/h (3 Bft) 97,83 %
30.01.2020 14:18 10,4 C 11,7 C 10,0 C 80 % 1007,6 hPa 0,0 l/m 2 min 0 min 197 W/m 12,9 km/h (3 Bft) 95,74 %
30.01.2020 14:20 10,4 C 11,1 C 10,0 C 80 % 1007,6 hPa 0,0 l/m 2 min 0 min 190 W/m 19,3 km/h (3 Bft) 97,87 %
30.01.2020 14:22 10,5 C 11,1 C 9,4 C 80 % 1007,6 hPa 0,0 l/m 2 min 0 min 182 W/m 19,3 km/h (3 Bft) 95,74 %
30.01.2020 14:24 10,5 C 10,6 C 9,4 C 79 % 1007,5 hPa 0,0 l/m 2 min 0 min 175 W/m 25,7 km/h (4 Bft) 93,62 %
30.01.2020 14:26 10,4 C 10,6 C 9,4 C 79 % 1007,5 hPa 0,0 l/m 0 min 0 min 170 W/m 19,3 km/h (3 Bft) 95,74 %
30.01.2020 14:28 10,4 C 10,6 C 9,4 C 79 % 1007,4 hPa 0,0 l/m 0 min 0 min 169 W/m 22,5 km/h (4 Bft) 97,83 %
30.01.2020 14:30 10,4 C 10,6 C 9,4 C 79 % 1007,4 hPa 0,0 l/m 2 min 0 min 179 W/m 22,5 km/h (4 Bft) 95,74 %
30.01.2020 14:32 10,4 C 11,1 C 9,4 C 79 % 1007,3 hPa 0,0 l/m 2 min 0 min 173 W/m 16,1 km/h (3 Bft) 95,74 %
30.01.2020 14:34 10,4 C 11,1 C 9,4 C 79 % 1007,3 hPa 0,0 l/m 2 min 0 min 172 W/m 16,1 km/h (3 Bft) 95,74 %
30.01.2020 14:36 10,4 C 11,1 C 9,4 C 79 % 1007,3 hPa 0,0 l/m 2 min 0 min 168 W/m 12,9 km/h (3 Bft) 93,62 %
30.01.2020 14:38 10,4 C 11,7 C 9,4 C 79 % 1007,2 hPa 0,0 l/m 2 min 0 min 178 W/m 16,1 km/h (3 Bft) 91,49 %
30.01.2020 14:40 10,4 C 11,1 C 9,4 C 79 % 1007,1 hPa 0,0 l/m 2 min 0 min 183 W/m 19,3 km/h (3 Bft) 95,65 %
30.01.2020 14:42 10,4 C 11,1 C 9,4 C 79 % 1007,1 hPa 0,0 l/m 2 min 0 min 182 W/m 19,3 km/h (3 Bft) 95,74 %
30.01.2020 14:44 10,4 C 11,1 C 9,4 C 80 % 1007,1 hPa 0,0 l/m 2 min 0 min 169 W/m 19,3 km/h (3 Bft) 93,62 %
30.01.2020 14:46 10,4 C 11,1 C 9,4 C 80 % 1007,0 hPa 0,0 l/m 2 min 0 min 172 W/m 16,1 km/h (3 Bft) 95,74 %
30.01.2020 14:48 10,4 C 11,1 C 9,4 C 80 % 1007,0 hPa 0,0 l/m 2 min 0 min 174 W/m 19,3 km/h (3 Bft) 95,74 %
30.01.2020 14:50 10,4 C 11,7 C 9,4 C 80 % 1006,9 hPa 0,0 l/m 2 min 0 min 177 W/m 12,9 km/h (3 Bft) 95,74 %
30.01.2020 14:52 10,4 C 11,7 C 9,4 C 80 % 1006,9 hPa 0,0 l/m 2 min 0 min 165 W/m 12,9 km/h (3 Bft) 95,65 %
30.01.2020 14:54 10,4 C 11,7 C 9,4 C 80 % 1006,8 hPa 0,0 l/m 2 min 0 min 181 W/m 19,3 km/h (3 Bft) 95,74 %
30.01.2020 14:56 10,4 C 11,7 C 9,4 C 80 % 1006,8 hPa 0,0 l/m 2 min 0 min 186 W/m 22,5 km/h (4 Bft) 95,74 %
30.01.2020 14:58 10,4 C 11,1 C 9,4 C 80 % 1006,7 hPa 0,0 l/m 2 min 0 min 180 W/m 16,1 km/h (3 Bft) 97,87 %
30.01.2020 15:00 10,4 C 11,1 C 9,4 C 80 % 1006,7 hPa 0,0 l/m 2 min 0 min 165 W/m 19,3 km/h (3 Bft) 97,87 %
30.01.2020 15:02 10,4 C 11,1 C 9,4 C 80 % 1006,7 hPa 0,0 l/m 2 min 0 min 173 W/m 16,1 km/h (3 Bft) 97,83 %
30.01.2020 15:04 10,4 C 11,1 C 9,4 C 80 % 1006,6 hPa 0,0 l/m 2 min 0 min 173 W/m 22,5 km/h (4 Bft) 100,00 %
30.01.2020 15:06 10,4 C 11,1 C 9,4 C 80 % 1006,5 hPa 0,0 l/m 2 min 0 min 166 W/m 19,3 km/h (3 Bft) 95,74 %
30.01.2020 15:08 10,4 C 11,1 C 9,4 C 80 % 1006,5 hPa 0,0 l/m 2 min 0 min 154 W/m 16,1 km/h (3 Bft) 97,87 %
30.01.2020 15:10 10,4 C 10,6 C 9,4 C 80 % 1006,4 hPa 0,0 l/m 2 min 0 min 156 W/m 29,0 km/h (5 Bft) 97,87 %
30.01.2020 15:12 10,4 C 10,6 C 9,4 C 80 % 1006,3 hPa 0,0 l/m 2 min 0 min 165 W/m 25,7 km/h (4 Bft) 95,74 %
30.01.2020 15:14 10,4 C 11,1 C 9,4 C 80 % 1006,3 hPa 0,0 l/m 2 min 0 min 166 W/m 16,1 km/h (3 Bft) 97,83 %
30.01.2020 15:16 10,4 C 11,1 C 9,4 C 80 % 1006,3 hPa 0,0 l/m 2 min 0 min 171 W/m 22,5 km/h (4 Bft) 97,87 %
30.01.2020 15:18 10,4 C 11,1 C 9,4 C 80 % 1006,3 hPa 0,0 l/m 2 min 0 min 156 W/m 12,9 km/h (3 Bft) 100,00 %
30.01.2020 15:20 10,4 C 11,1 C 9,4 C 80 % 1006,2 hPa 0,0 l/m 2 min 0 min 173 W/m 25,7 km/h (4 Bft) 97,87 %
30.01.2020 15:22 10,4 C 10,6 C 9,4 C 80 % 1006,1 hPa 0,0 l/m 2 min 0 min 154 W/m 19,3 km/h (3 Bft) 100,00 %
30.01.2020 15:24 10,3 C 10,6 C 9,4 C 81 % 1006,1 hPa 0,0 l/m 0 min 0 min 126 W/m 22,5 km/h (4 Bft) 100,00 %
30.01.2020 15:26 10,3 C 10,0 C 9,4 C 81 % 1006,0 hPa 0,0 l/m 0 min 0 min 109 W/m 22,5 km/h (4 Bft) 100,00 %
30.01.2020 15:28 10,3 C 10,0 C 8,9 C 81 % 1006,0 hPa 0,0 l/m 0 min 0 min 100 W/m 35,4 km/h (5 Bft) 100,00 %
30.01.2020 15:30 10,3 C 10,0 C 8,9 C 81 % 1005,9 hPa 0,0 l/m 0 min 0 min 96 W/m 29,0 km/h (5 Bft) 100,00 %
30.01.2020 15:32 10,3 C 9,4 C 8,9 C 81 % 1005,9 hPa 0,0 l/m 0 min 0 min 99 W/m 25,7 km/h (4 Bft) 95,74 %
30.01.2020 15:34 10,2 C 10,0 C 8,9 C 81 % 1005,7 hPa 0,0 l/m 0 min 0 min 101 W/m 19,3 km/h (3 Bft) 100,00 %
30.01.2020 15:36 10,2 C 9,4 C 8,9 C 81 % 1005,7 hPa 0,0 l/m 0 min 0 min 100 W/m 29,0 km/h (5 Bft) 100,00 %
30.01.2020 15:38 10,2 C 9,4 C 8,9 C 81 % 1005,6 hPa 0,0 l/m 0 min 0 min 97 W/m 22,5 km/h (4 Bft) 100,00 %
30.01.2020 15:40 10,2 C 9,4 C 8,9 C 81 % 1005,6 hPa 0,0 l/m 0 min 0 min 92 W/m 22,5 km/h (4 Bft) 97,87 %
30.01.2020 15:42 10,1 C 9,4 C 8,9 C 81 % 1005,5 hPa 0,0 l/m 0 min 0 min 90 W/m 25,7 km/h (4 Bft) 100,00 %
30.01.2020 15:44 10,1 C 9,4 C 8,9 C 81 % 1005,5 hPa 0,0 l/m 0 min 0 min 86 W/m 25,7 km/h (4 Bft) 97,87 %
30.01.2020 15:46 10,1 C 9,4 C 8,9 C 81 % 1005,5 hPa 0,0 l/m 0 min 0 min 82 W/m 25,7 km/h (4 Bft) 97,87 %
30.01.2020 15:48 10,1 C 9,4 C 8,9 C 82 % 1005,4 hPa 0,0 l/m 0 min 0 min 81 W/m 29,0 km/h (5 Bft) 100,00 %
30.01.2020 15:50 10,1 C 9,4 C 8,9 C 82 % 1005,4 hPa 0,0 l/m 0 min 0 min 80 W/m 19,3 km/h (3 Bft) 100,00 %
30.01.2020 15:52 10,0 C 9,4 C 8,9 C 82 % 1005,4 hPa 0,0 l/m 0 min 0 min 79 W/m 25,7 km/h (4 Bft) 100,00 %
30.01.2020 15:54 10,0 C 9,4 C 8,9 C 82 % 1005,4 hPa 0,0 l/m 0 min 0 min 79 W/m 19,3 km/h (3 Bft) 100,00 %
30.01.2020 15:56 10,0 C 9,4 C 8,9 C 82 % 1005,4 hPa 0,0 l/m 0 min 0 min 81 W/m 16,1 km/h (3 Bft) 100,00 %
30.01.2020 15:58 10,0 C 9,4 C 8,9 C 82 % 1005,4 hPa 0,0 l/m 0 min 0 min 81 W/m 19,3 km/h (3 Bft) 97,87 %
30.01.2020 16:00 9,9 C 9,4 C 8,9 C 82 % 1005,4 hPa 0,0 l/m 0 min 0 min 81 W/m 16,1 km/h (3 Bft) 97,83 %
30.01.2020 16:02 9,9 C 9,4 C 8,9 C 82 % 1005,4 hPa 0,0 l/m 0 min 0 min 76 W/m 19,3 km/h (3 Bft) 97,87 %
30.01.2020 16:04 9,9 C 9,4 C 8,9 C 82 % 1005,4 hPa 0,0 l/m 0 min 0 min 70 W/m 25,7 km/h (4 Bft) 97,87 %
30.01.2020 16:06 9,9 C 9,4 C 8,9 C 82 % 1005,4 hPa 0,0 l/m 0 min 0 min 63 W/m 19,3 km/h (3 Bft) 97,87 %
30.01.2020 16:08 9,9 C 9,4 C 8,9 C 82 % 1005,3 hPa 0,0 l/m 0 min 0 min 58 W/m 16,1 km/h (3 Bft) 97,87 %
30.01.2020 16:10 9,9 C 9,4 C 8,9 C 82 % 1005,3 hPa 0,0 l/m 0 min 0 min 50 W/m 29,0 km/h (5 Bft) 97,87 %
30.01.2020 16:12 9,9 C 9,4 C 8,9 C 83 % 1005,2 hPa 0,0 l/m 0 min 0 min 45 W/m 19,3 km/h (3 Bft) 97,83 %
30.01.2020 16:14 9,9 C 9,4 C 8,9 C 83 % 1005,2 hPa 0,0 l/m 0 min 0 min 39 W/m 22,5 km/h (4 Bft) 95,74 %
30.01.2020 16:16 9,9 C 9,4 C 8,9 C 83 % 1005,1 hPa 0,0 l/m 0 min 0 min 35 W/m 22,5 km/h (4 Bft) 97,87 %
30.01.2020 16:18 9,9 C 9,4 C 8,9 C 83 % 1005,1 hPa 0,0 l/m 0 min 0 min 33 W/m 16,1 km/h (3 Bft) 93,62 %
30.01.2020 16:20 9,8 C 9,4 C 8,9 C 82 % 1005,0 hPa 0,0 l/m 0 min 0 min 30 W/m 25,7 km/h (4 Bft) 97,87 %
30.01.2020 16:22 9,8 C 8,9 C 8,3 C 82 % 1005,0 hPa 0,0 l/m 0 min 0 min 27 W/m 19,3 km/h (3 Bft) 97,87 %
30.01.2020 16:24 9,8 C 8,9 C 8,3 C 82 % 1005,0 hPa 0,0 l/m 0 min 0 min 22 W/m 32,2 km/h (5 Bft) 97,83 %
30.01.2020 16:26 9,8 C 8,9 C 8,3 C 82 % 1005,0 hPa 0,0 l/m 0 min 0 min 18 W/m 19,3 km/h (3 Bft) 97,87 %
30.01.2020 16:28 9,8 C 8,9 C 8,3 C 82 % 1005,0 hPa 0,0 l/m 0 min 0 min 18 W/m 22,5 km/h (4 Bft) 97,87 %
30.01.2020 16:30 9,8 C 8,9 C 8,3 C 82 % 1005,0 hPa 0,0 l/m 0 min 0 min 17 W/m 16,1 km/h (3 Bft) 97,87 %
30.01.2020 16:32 9,8 C 8,9 C 8,3 C 82 % 1004,9 hPa 0,0 l/m 0 min 0 min 16 W/m 22,5 km/h (4 Bft) 95,74 %
30.01.2020 16:34 9,7 C 8,9 C 8,3 C 82 % 1004,8 hPa 0,0 l/m 0 min 0 min 16 W/m 19,3 km/h (3 Bft) 100,00 %
30.01.2020 16:36 9,7 C 8,9 C 8,3 C 82 % 1004,8 hPa 0,0 l/m 0 min 0 min 14 W/m 22,5 km/h (4 Bft) 97,83 %
30.01.2020 16:38 9,7 C 8,9 C 8,3 C 82 % 1004,7 hPa 0,0 l/m 0 min 0 min 15 W/m 19,3 km/h (3 Bft) 100,00 %
30.01.2020 16:40 9,7 C 8,9 C 8,3 C 82 % 1004,6 hPa 0,0 l/m 0 min 0 min 15 W/m 22,5 km/h (4 Bft) 97,87 %
30.01.2020 16:42 9,7 C 8,9 C 8,3 C 83 % 1004,6 hPa 0,0 l/m 0 min 0 min 13 W/m 19,3 km/h (3 Bft) 97,87 %
30.01.2020 16:44 9,7 C 8,9 C 8,3 C 83 % 1004,6 hPa 0,0 l/m 0 min 0 min 11 W/m 35,4 km/h (5 Bft) 95,74 %
30.01.2020 16:46 9,7 C 8,3 C 8,3 C 83 % 1004,5 hPa 0,0 l/m 0 min 0 min 9 W/m 25,7 km/h (4 Bft) 100,00 %
30.01.2020 16:48 9,6 C 8,3 C 8,3 C 83 % 1004,5 hPa 0,0 l/m 0 min 0 min 8 W/m 35,4 km/h (5 Bft) 100,00 %
30.01.2020 16:50 9,6 C 8,9 C 8,3 C 83 % 1004,5 hPa 0,0 l/m 0 min 0 min 7 W/m 22,5 km/h (4 Bft) 95,74 %
30.01.2020 16:52 9,6 C 8,9 C 8,3 C 83 % 1004,5 hPa 0,0 l/m 0 min 0 min 6 W/m 22,5 km/h (4 Bft) 97,87 %
30.01.2020 16:54 9,6 C 7,8 C 7,8 C 83 % 1004,5 hPa 0,0 l/m 0 min 2 min 5 W/m 25,7 km/h (4 Bft) 97,87 %
30.01.2020 16:56 9,6 C 7,2 C 7,2 C 83 % 1004,5 hPa 0,0 l/m 0 min 2 min 3 W/m 25,7 km/h (4 Bft) 97,87 %
30.01.2020 16:58 9,6 C 7,2 C 6,7 C 84 % 1004,6 hPa 0,0 l/m 0 min 2 min 2 W/m 22,5 km/h (4 Bft) 95,65 %
30.01.2020 17:00 9,5 C 6,7 C 6,7 C 84 % 1004,6 hPa 0,0 l/m 0 min 2 min 0 W/m 19,3 km/h (3 Bft) 95,74 %
30.01.2020 17:02 9,5 C 6,7 C 6,1 C 85 % 1004,6 hPa 0,2 l/m 0 min 2 min 0 W/m 22,5 km/h (4 Bft) 95,74 %
30.01.2020 17:04 9,4 C 6,7 C 6,1 C 85 % 1004,8 hPa 0,2 l/m 0 min 2 min 0 W/m 19,3 km/h (3 Bft) 97,87 %
30.01.2020 17:06 9,4 C 6,7 C 6,1 C 86 % 1004,8 hPa 0,0 l/m 0 min 2 min 0 W/m 16,1 km/h (3 Bft) 97,87 %
30.01.2020 17:08 9,4 C 6,7 C 6,1 C 86 % 1004,8 hPa 0,2 l/m 0 min 2 min 0 W/m 12,9 km/h (3 Bft) 97,87 %
30.01.2020 17:10 9,3 C 6,7 C 6,1 C 86 % 1004,8 hPa 0,0 l/m 0 min 2 min 0 W/m 22,5 km/h (4 Bft) 97,83 %
30.01.2020 17:12 9,3 C 6,7 C 6,1 C 87 % 1004,8 hPa 0,0 l/m 0 min 2 min 0 W/m 19,3 km/h (3 Bft) 97,87 %
30.01.2020 17:14 9,2 C 6,7 C 6,1 C 87 % 1004,8 hPa 0,2 l/m 0 min 2 min 0 W/m 16,1 km/h (3 Bft) 97,87 %
30.01.2020 17:16 9,2 C 6,7 C 6,1 C 87 % 1004,8 hPa 0,0 l/m 0 min 2 min 0 W/m 12,9 km/h (3 Bft) 97,87 %
30.01.2020 17:18 9,2 C 6,7 C 6,1 C 88 % 1004,7 hPa 0,0 l/m 0 min 2 min 0 W/m 12,9 km/h (3 Bft) 95,74 %
30.01.2020 17:20 9,1 C 6,7 C 6,1 C 88 % 1004,6 hPa 0,0 l/m 0 min 2 min 0 W/m 16,1 km/h (3 Bft) 97,87 %
30.01.2020 17:22 9,1 C 6,7 C 6,1 C 89 % 1004,5 hPa 0,2 l/m 0 min 2 min 0 W/m 12,9 km/h (3 Bft) 97,83 %
30.01.2020 17:24 9,1 C 6,7 C 6,1 C 89 % 1004,5 hPa 0,0 l/m 0 min 2 min 0 W/m 12,9 km/h (3 Bft) 95,74 %
30.01.2020 17:26 9,0 C 6,7 C 6,1 C 89 % 1004,4 hPa 0,0 l/m 0 min 2 min 0 W/m 16,1 km/h (3 Bft) 97,87 %
30.01.2020 17:28 8,9 C 6,7 C 6,1 C 90 % 1004,4 hPa 0,2 l/m 0 min 2 min 0 W/m 12,9 km/h (3 Bft) 97,87 %
30.01.2020 17:30 8,9 C 6,7 C 6,1 C 90 % 1004,4 hPa 0,0 l/m 0 min 0 min 0 W/m 12,9 km/h (3 Bft) 97,87 %
30.01.2020 17:32 8,8 C 6,7 C 6,1 C 90 % 1004,3 hPa 0,0 l/m 0 min 0 min 0 W/m 19,3 km/h (3 Bft) 95,74 %
30.01.2020 17:34 8,8 C 6,7 C 6,1 C 90 % 1004,4 hPa 0,0 l/m 0 min 0 min 0 W/m 19,3 km/h (3 Bft) 97,83 %
30.01.2020 17:36 8,7 C 6,7 C 6,1 C 91 % 1004,5 hPa 0,0 l/m 0 min 2 min 0 W/m 22,5 km/h (4 Bft) 97,87 %
30.01.2020 17:38 8,7 C 6,7 C 6,1 C 91 % 1004,5 hPa 0,0 l/m 0 min 0 min 0 W/m 19,3 km/h (3 Bft) 100,00 %
30.01.2020 17:40 8,6 C 6,7 C 6,1 C 91 % 1004,6 hPa 0,0 l/m 0 min 0 min 0 W/m 12,9 km/h (3 Bft) 100,00 %
30.01.2020 17:42 8,6 C 6,7 C 6,1 C 92 % 1004,5 hPa 0,0 l/m 0 min 0 min 0 W/m 12,9 km/h (3 Bft) 100,00 %
30.01.2020 17:44 8,6 C 6,7 C 6,1 C 92 % 1004,6 hPa 0,0 l/m 0 min 0 min 0 W/m 16,1 km/h (3 Bft) 100,00 %
30.01.2020 17:46 8,5 C 6,7 C 6,1 C 92 % 1004,6 hPa 0,0 l/m 0 min 0 min 0 W/m 16,1 km/h (3 Bft) 97,83 %
30.01.2020 17:48 8,5 C 6,7 C 6,1 C 92 % 1004,6 hPa 0,0 l/m 0 min 0 min 0 W/m 12,9 km/h (3 Bft) 100,00 %
30.01.2020 17:50 8,5 C 6,7 C 6,1 C 92 % 1004,6 hPa 0,0 l/m 0 min 2 min 0 W/m 25,7 km/h (4 Bft) 95,74 %
30.01.2020 17:52 8,4 C 7,2 C 6,7 C 93 % 1004,5 hPa 0,0 l/m 0 min 0 min 0 W/m 25,7 km/h (4 Bft) 95,74 %
30.01.2020 17:54 8,5 C 7,2 C 6,7 C 93 % 1004,5 hPa 0,0 l/m 0 min 0 min 0 W/m 12,9 km/h (3 Bft) 97,87 %
30.01.2020 17:56 8,5 C 7,2 C 6,7 C 93 % 1004,5 hPa 0,0 l/m 0 min 0 min 0 W/m 22,5 km/h (4 Bft) 95,65 %
30.01.2020 17:58 8,6 C 7,2 C 6,7 C 93 % 1004,3 hPa 0,0 l/m 0 min 0 min 0 W/m 19,3 km/h (3 Bft) 97,87 %
30.01.2020 18:00 8,6 C 7,8 C 6,7 C 93 % 1004,3 hPa 0,0 l/m 0 min 0 min 0 W/m 29,0 km/h (5 Bft) 100,00 %
30.01.2020 18:02 8,6 C 7,8 C 7,2 C 94 % 1004,3 hPa 0,0 l/m 0 min 0 min 0 W/m 19,3 km/h (3 Bft) 97,87 %
30.01.2020 18:04 8,7 C 7,8 C 7,2 C 94 % 1004,2 hPa 0,0 l/m 0 min 0 min 0 W/m 22,5 km/h (4 Bft) 97,87 %
30.01.2020 18:06 8,7 C 7,8 C 6,7 C 94 % 1004,1 hPa 0,0 l/m 0 min 0 min 0 W/m 22,5 km/h (4 Bft) 95,74 %
30.01.2020 18:08 8,7 C 7,8 C 7,2 C 94 % 1004,1 hPa 0,0 l/m 0 min 0 min 0 W/m 25,7 km/h (4 Bft) 95,65 %
30.01.2020 18:10 8,8 C 7,8 C 7,2 C 94 % 1004,1 hPa 0,0 l/m 0 min 2 min 0 W/m 16,1 km/h (3 Bft) 97,87 %
30.01.2020 18:12 8,8 C 7,8 C 7,2 C 94 % 1004,1 hPa 0,0 l/m 0 min 0 min 0 W/m 6,4 km/h (2 Bft) 97,87 %
30.01.2020 18:14 8,8 C 7,8 C 7,2 C 94 % 1004,0 hPa 0,0 l/m 0 min 0 min 0 W/m 16,1 km/h (3 Bft) 97,87 %
30.01.2020 18:16 8,8 C 7,8 C 7,2 C 94 % 1004,0 hPa 0,0 l/m 0 min 0 min 0 W/m 12,9 km/h (3 Bft) 97,87 %
30.01.2020 18:18 8,8 C 7,8 C 7,2 C 94 % 1004,0 hPa 0,0 l/m 0 min 0 min 0 W/m 19,3 km/h (3 Bft) 97,87 %
30.01.2020 18:20 8,8 C 7,8 C 7,2 C 94 % 1004,0 hPa 0,0 l/m 0 min 0 min 0 W/m 16,1 km/h (3 Bft) 97,83 %
30.01.2020 18:22 8,9 C 7,8 C 7,2 C 94 % 1004,0 hPa 0,0 l/m 0 min 0 min 0 W/m 16,1 km/h (3 Bft) 97,87 %
30.01.2020 18:24 8,9 C 7,8 C 7,2 C 94 % 1004,0 hPa 0,0 l/m 0 min 0 min 0 W/m 16,1 km/h (3 Bft) 95,74 %
30.01.2020 18:26 8,9 C 7,8 C 7,2 C 94 % 1004,0 hPa 0,0 l/m 0 min 0 min 0 W/m 16,1 km/h (3 Bft) 97,87 %
30.01.2020 18:28 8,9 C 7,8 C 7,2 C 94 % 1003,9 hPa 0,0 l/m 0 min 0 min 0 W/m 22,5 km/h (4 Bft) 97,87 %
30.01.2020 18:30 8,9 C 7,8 C 7,2 C 94 % 1003,9 hPa 0,0 l/m 0 min 0 min 0 W/m 19,3 km/h (3 Bft) 97,87 %
30.01.2020 18:32 8,9 C 7,8 C 7,2 C 94 % 1003,8 hPa 0,0 l/m 0 min 0 min 0 W/m 16,1 km/h (3 Bft) 100,00 %
30.01.2020 18:34 8,9 C 7,8 C 7,2 C 94 % 1003,8 hPa 0,0 l/m 0 min 0 min 0 W/m 19,3 km/h (3 Bft) 100,00 %
30.01.2020 18:36 9,0 C 7,8 C 7,2 C 94 % 1003,7 hPa 0,0 l/m 0 min 0 min 0 W/m 22,5 km/h (4 Bft) 97,87 %
30.01.2020 18:38 9,0 C 7,8 C 7,2 C 94 % 1003,7 hPa 0,0 l/m 0 min 0 min 0 W/m 22,5 km/h (4 Bft) 97,87 %
30.01.2020 18:40 9,0 C 7,8 C 7,2 C 94 % 1003,7 hPa 0,0 l/m 0 min 0 min 0 W/m 22,5 km/h (4 Bft) 97,87 %
30.01.2020 18:42 9,1 C 7,8 C 7,2 C 94 % 1003,7 hPa 0,0 l/m 0 min 0 min 0 W/m 25,7 km/h (4 Bft) 93,62 %
30.01.2020 18:44 9,1 C 7,8 C 7,2 C 94 % 1003,8 hPa 0,0 l/m 0 min 0 min 0 W/m 25,7 km/h (4 Bft) 97,83 %
30.01.2020 18:46 9,1 C 7,8 C 7,2 C 94 % 1003,7 hPa 0,0 l/m 0 min 2 min 0 W/m 25,7 km/h (4 Bft) 95,74 %
30.01.2020 18:48 9,1 C 7,8 C 7,2 C 94 % 1003,7 hPa 0,0 l/m 0 min 2 min 0 W/m 22,5 km/h (4 Bft) 95,74 %
30.01.2020 18:50 9,1 C 7,8 C 7,2 C 94 % 1003,8 hPa 0,0 l/m 0 min 2 min 0 W/m 19,3 km/h (3 Bft) 95,74 %
30.01.2020 18:52 9,1 C 7,8 C 7,2 C 94 % 1003,7 hPa 0,0 l/m 0 min 2 min 0 W/m 29,0 km/h (5 Bft) 97,87 %
30.01.2020 18:54 9,1 C 7,8 C 7,2 C 94 % 1003,7 hPa 0,0 l/m 0 min 2 min 0 W/m 22,5 km/h (4 Bft) 97,83 %
30.01.2020 18:56 9,1 C 7,8 C 7,2 C 94 % 1003,7 hPa 0,0 l/m 0 min 2 min 0 W/m 29,0 km/h (5 Bft) 97,87 %
30.01.2020 18:58 9,2 C 7,8 C 7,2 C 94 % 1003,8 hPa 0,0 l/m 0 min 2 min 0 W/m 29,0 km/h (5 Bft) 97,87 %
30.01.2020 19:00 9,2 C 7,8 C 7,2 C 94 % 1003,8 hPa 0,0 l/m 0 min 2 min 0 W/m 25,7 km/h (4 Bft) 97,87 %
30.01.2020 19:02 9,2 C 7,8 C 7,2 C 94 % 1003,8 hPa 0,0 l/m 0 min 0 min 0 W/m 22,5 km/h (4 Bft) 97,87 %
30.01.2020 19:04 9,2 C 7,8 C 7,2 C 94 % 1003,8 hPa 0,0 l/m 0 min 2 min 0 W/m 22,5 km/h (4 Bft) 97,87 %
30.01.2020 19:06 9,2 C 7,8 C 7,2 C 94 % 1003,9 hPa 0,0 l/m 0 min 0 min 0 W/m 19,3 km/h (3 Bft) 97,87 %
30.01.2020 19:08 9,2 C 7,2 C 7,2 C 94 % 1003,9 hPa 0,0 l/m 0 min 2 min 0 W/m 22,5 km/h (4 Bft) 95,65 %
30.01.2020 19:10 9,2 C 7,2 C 7,2 C 94 % 1003,9 hPa 0,0 l/m 0 min 2 min 0 W/m 25,7 km/h (4 Bft) 95,74 %
30.01.2020 19:12 9,2 C 7,2 C 7,2 C 94 % 1003,8 hPa 0,0 l/m 0 min 2 min 0 W/m 25,7 km/h (4 Bft) 97,87 %
30.01.2020 19:14 9,2 C 7,2 C 7,2 C 94 % 1003,7 hPa 0,0 l/m 0 min 2 min 0 W/m 22,5 km/h (4 Bft) 97,87 %
30.01.2020 19:16 9,2 C 7,2 C 7,2 C 94 % 1003,8 hPa 0,0 l/m 0 min 2 min 0 W/m 38,6 km/h (5 Bft) 97,87 %
30.01.2020 19:18 9,2 C 7,2 C 7,2 C 94 % 1003,7 hPa 0,0 l/m 0 min 2 min 0 W/m 29,0 km/h (5 Bft) 97,83 %
30.01.2020 19:20 9,2 C 7,2 C 7,2 C 94 % 1003,8 hPa 0,0 l/m 0 min 2 min 0 W/m 25,7 km/h (4 Bft) 95,74 %
30.01.2020 19:22 9,1 C 7,2 C 7,2 C 94 % 1003,7 hPa 0,0 l/m 0 min 2 min 0 W/m 22,5 km/h (4 Bft) 95,74 %
30.01.2020 19:24 9,1 C 7,2 C 7,2 C 94 % 1003,7 hPa 0,0 l/m 0 min 2 min 0 W/m 19,3 km/h (3 Bft) 95,74 %
30.01.2020 19:26 9,1 C 7,2 C 7,2 C 95 % 1003,7 hPa 0,2 l/m 0 min 2 min 0 W/m 19,3 km/h (3 Bft) 93,62 %
30.01.2020 19:28 9,1 C 7,2 C 7,2 C 94 % 1003,7 hPa 0,0 l/m 0 min 2 min 0 W/m 22,5 km/h (4 Bft) 95,74 %
30.01.2020 19:30 9,1 C 7,2 C 7,2 C 95 % 1003,7 hPa 0,0 l/m 0 min 2 min 0 W/m 19,3 km/h (3 Bft) 95,65 %
30.01.2020 19:32 9,1 C 7,2 C 7,2 C 95 % 1003,7 hPa 0,0 l/m 0 min 2 min 0 W/m 25,7 km/h (4 Bft) 93,62 %
30.01.2020 19:34 9,1 C 7,2 C 7,2 C 95 % 1003,7 hPa 0,0 l/m 0 min 2 min 0 W/m 22,5 km/h (4 Bft) 95,74 %
30.01.2020 19:36 9,1 C 7,2 C 7,2 C 95 % 1003,6 hPa 0,0 l/m 0 min 2 min 0 W/m 19,3 km/h (3 Bft) 93,62 %
30.01.2020 19:38 9,1 C 7,8 C 7,2 C 95 % 1003,6 hPa 0,2 l/m 0 min 2 min 0 W/m 19,3 km/h (3 Bft) 95,74 %
30.01.2020 19:40 9,0 C 7,8 C 7,2 C 95 % 1003,5 hPa 0,0 l/m 0 min 0 min 0 W/m 16,1 km/h (3 Bft) 95,74 %
30.01.2020 19:42 9,0 C 7,8 C 7,2 C 95 % 1003,5 hPa 0,0 l/m 0 min 0 min 0 W/m 25,7 km/h (4 Bft) 97,83 %
30.01.2020 19:44 9,0 C 7,8 C 7,2 C 95 % 1003,4 hPa 0,0 l/m 0 min 0 min 0 W/m 22,5 km/h (4 Bft) 93,62 %
30.01.2020 19:46 9,0 C 7,8 C 7,2 C 96 % 1003,3 hPa 0,0 l/m 0 min 0 min 0 W/m 22,5 km/h (4 Bft) 97,87 %
30.01.2020 19:48 9,0 C 7,8 C 7,2 C 96 % 1003,2 hPa 0,0 l/m 0 min 0 min 0 W/m 22,5 km/h (4 Bft) 97,87 %
30.01.2020 19:50 9,0 C 7,8 C 7,2 C 96 % 1003,3 hPa 0,0 l/m 0 min 0 min 0 W/m 19,3 km/h (3 Bft) 97,87 %
30.01.2020 19:52 9,0 C 7,8 C 7,2 C 96 % 1003,1 hPa 0,0 l/m 0 min 2 min 0 W/m 16,1 km/h (3 Bft) 97,87 %
30.01.2020 19:54 8,9 C 7,8 C 7,2 C 96 % 1003,1 hPa 0,0 l/m 0 min 0 min 0 W/m 22,5 km/h (4 Bft) 97,83 %
30.01.2020 19:56 8,9 C 7,8 C 7,2 C 96 % 1003,1 hPa 0,0 l/m 0 min 0 min 0 W/m 29,0 km/h (5 Bft) 97,87 %
30.01.2020 19:58 8,9 C 7,8 C 7,2 C 96 % 1003,1 hPa 0,0 l/m 0 min 0 min 0 W/m 25,7 km/h (4 Bft) 97,87 %
30.01.2020 20:00 9,0 C 7,8 C 7,2 C 96 % 1003,1 hPa 0,0 l/m 0 min 0 min 0 W/m 32,2 km/h (5 Bft) 97,87 %
30.01.2020 20:02 9,0 C 7,8 C 7,2 C 96 % 1003,1 hPa 0,0 l/m 0 min 0 min 0 W/m 25,7 km/h (4 Bft) 95,74 %
30.01.2020 20:04 9,0 C 7,8 C 7,2 C 96 % 1003,1 hPa 0,0 l/m 0 min 0 min 0 W/m 25,7 km/h (4 Bft) 95,74 %
30.01.2020 20:06 9,0 C 7,8 C 7,2 C 96 % 1003,1 hPa 0,0 l/m 0 min 0 min 0 W/m 29,0 km/h (5 Bft) 97,83 %
30.01.2020 20:08 9,1 C 7,8 C 7,2 C 96 % 1003,1 hPa 0,0 l/m 0 min 0 min 0 W/m 19,3 km/h (3 Bft) 100,00 %
30.01.2020 20:10 9,1 C 7,8 C 7,2 C 97 % 1003,0 hPa 0,0 l/m 0 min 0 min 0 W/m 22,5 km/h (4 Bft) 100,00 %
30.01.2020 20:12 9,1 C 7,8 C 7,2 C 97 % 1003,1 hPa 0,0 l/m 0 min 0 min 0 W/m 25,7 km/h (4 Bft) 97,87 %
30.01.2020 20:14 9,1 C 7,8 C 7,2 C 97 % 1003,1 hPa 0,0 l/m 0 min 0 min 0 W/m 19,3 km/h (3 Bft) 100,00 %
30.01.2020 20:16 9,1 C 7,8 C 7,2 C 97 % 1003,1 hPa 0,0 l/m 0 min 0 min 0 W/m 25,7 km/h (4 Bft) 100,00 %
30.01.2020 20:18 9,2 C 7,8 C 7,8 C 97 % 1003,0 hPa 0,0 l/m 0 min 0 min 0 W/m 35,4 km/h (5 Bft) 100,00 %
30.01.2020 20:20 9,2 C 7,8 C 7,8 C 97 % 1003,0 hPa 0,0 l/m 0 min 0 min 0 W/m 19,3 km/h (3 Bft) 97,87 %
30.01.2020 20:22 9,2 C 7,8 C 7,8 C 97 % 1003,0 hPa 0,0 l/m 0 min 0 min 0 W/m 22,5 km/h (4 Bft) 100,00 %
30.01.2020 20:24 9,2 C 8,3 C 7,8 C 97 % 1002,9 hPa 0,0 l/m 0 min 0 min 0 W/m 29,0 km/h (5 Bft) 97,87 %
30.01.2020 20:26 9,2 C 8,3 C 7,8 C 97 % 1002,9 hPa 0,0 l/m 0 min 2 min 0 W/m 35,4 km/h (5 Bft) 100,00 %
30.01.2020 20:28 9,2 C 8,3 C 7,8 C 97 % 1002,9 hPa 0,0 l/m 0 min 2 min 0 W/m 32,2 km/h (5 Bft) 100,00 %
30.01.2020 20:30 9,3 C 8,3 C 7,8 C 97 % 1002,9 hPa 0,0 l/m 0 min 2 min 0 W/m 22,5 km/h (4 Bft) 100,00 %
30.01.2020 20:32 9,3 C 8,3 C 7,8 C 97 % 1002,9 hPa 0,0 l/m 0 min 2 min 0 W/m 29,0 km/h (5 Bft) 100,00 %
30.01.2020 20:34 9,3 C 8,3 C 7,8 C 97 % 1002,9 hPa 0,0 l/m 0 min 2 min 0 W/m 25,7 km/h (4 Bft) 97,87 %
30.01.2020 20:36 9,3 C 8,3 C 7,8 C 97 % 1002,9 hPa 0,0 l/m 0 min 2 min 0 W/m 19,3 km/h (3 Bft) 97,87 %
30.01.2020 20:38 9,3 C 8,3 C 7,8 C 97 % 1002,8 hPa 0,0 l/m 0 min 0 min 0 W/m 22,5 km/h (4 Bft) 100,00 %
30.01.2020 20:40 9,3 C 8,3 C 7,8 C 97 % 1002,7 hPa 0,0 l/m 0 min 2 min 0 W/m 19,3 km/h (3 Bft) 97,83 %
30.01.2020 20:42 9,3 C 8,3 C 7,8 C 98 % 1002,8 hPa 0,0 l/m 0 min 2 min 0 W/m 41,8 km/h (6 Bft) 100,00 %
30.01.2020 20:44 9,3 C 8,3 C 7,8 C 98 % 1002,7 hPa 0,0 l/m 0 min 0 min 0 W/m 32,2 km/h (5 Bft) 97,87 %
30.01.2020 20:46 9,4 C 8,3 C 7,8 C 98 % 1002,7 hPa 0,0 l/m 0 min 2 min 0 W/m 22,5 km/h (4 Bft) 100,00 %
30.01.2020 20:48 9,4 C 8,3 C 7,8 C 98 % 1002,6 hPa 0,2 l/m 0 min 2 min 0 W/m 32,2 km/h (5 Bft) 100,00 %
30.01.2020 20:50 9,4 C 8,3 C 7,8 C 98 % 1002,6 hPa 0,0 l/m 0 min 2 min 0 W/m 9,7 km/h (2 Bft) 100,00 %
30.01.2020 20:52 9,4 C 8,3 C 7,8 C 98 % 1002,6 hPa 0,0 l/m 0 min 0 min 0 W/m 22,5 km/h (4 Bft) 100,00 %
30.01.2020 20:54 9,4 C 8,3 C 7,8 C 98 % 1002,5 hPa 0,0 l/m 0 min 0 min 0 W/m 19,3 km/h (3 Bft) 100,00 %
30.01.2020 20:56 9,5 C 8,3 C 7,8 C 98 % 1002,4 hPa 0,0 l/m 0 min 0 min 0 W/m 19,3 km/h (3 Bft) 97,87 %
30.01.2020 20:58 9,5 C 8,3 C 7,8 C 98 % 1002,4 hPa 0,0 l/m 0 min 0 min 0 W/m 22,5 km/h (4 Bft) 100,00 %
30.01.2020 21:00 9,6 C 8,3 C 7,8 C 98 % 1002,4 hPa 0,0 l/m 0 min 0 min 0 W/m 25,7 km/h (4 Bft) 97,87 %
30.01.2020 21:02 9,6 C 8,9 C 7,8 C 98 % 1002,5 hPa 0,0 l/m 0 min 0 min 0 W/m 16,1 km/h (3 Bft) 97,87 %
30.01.2020 21:04 9,6 C 8,9 C 8,3 C 98 % 1002,6 hPa 0,0 l/m 0 min 0 min 0 W/m 29,0 km/h (5 Bft) 100,00 %
30.01.2020 21:06 9,7 C 8,9 C 8,3 C 98 % 1002,5 hPa 0,0 l/m 0 min 0 min 0 W/m 25,7 km/h (4 Bft) 100,00 %
30.01.2020 21:08 9,7 C 8,9 C 8,3 C 98 % 1002,4 hPa 0,0 l/m 0 min 0 min 0 W/m 19,3 km/h (3 Bft) 100,00 %
30.01.2020 21:10 9,7 C 8,9 C 8,3 C 98 % 1002,4 hPa 0,0 l/m 0 min 0 min 0 W/m 29,0 km/h (5 Bft) 100,00 %
30.01.2020 21:12 9,7 C 8,9 C 8,3 C 98 % 1002,4 hPa 0,0 l/m 0 min 0 min 0 W/m 22,5 km/h (4 Bft) 100,00 %
30.01.2020 21:14 9,8 C 8,9 C 8,3 C 98 % 1002,4 hPa 0,0 l/m 0 min 0 min 0 W/m 32,2 km/h (5 Bft) 100,00 %
30.01.2020 21:16 9,8 C 8,9 C 8,3 C 98 % 1002,3 hPa 0,0 l/m 0 min 0 min 0 W/m 35,4 km/h (5 Bft) 97,87 %
30.01.2020 21:18 9,9 C 8,9 C 8,3 C 98 % 1002,4 hPa 0,0 l/m 0 min 0 min 0 W/m 35,4 km/h (5 Bft) 100,00 %
30.01.2020 21:20 9,9 C 8,9 C 8,3 C 99 % 1002,5 hPa 0,0 l/m 0 min 0 min 0 W/m 12,9 km/h (3 Bft) 97,87 %
30.01.2020 21:22 10,0 C 9,4 C 8,3 C 99 % 1002,4 hPa 0,0 l/m 0 min 0 min 0 W/m 22,5 km/h (4 Bft) 95,74 %
30.01.2020 21:24 10,1 C 9,4 C 8,9 C 99 % 1002,5 hPa 0,0 l/m 0 min 0 min 0 W/m 38,6 km/h (5 Bft) 95,74 %
30.01.2020 21:26 10,1 C 9,4 C 8,9 C 99 % 1002,6 hPa 0,0 l/m 0 min 0 min 0 W/m 22,5 km/h (4 Bft) 97,83 %
30.01.2020 21:28 10,1 C 9,4 C 8,9 C 98 % 1002,6 hPa 0,0 l/m 0 min 0 min 0 W/m 22,5 km/h (4 Bft) 97,87 %
30.01.2020 21:30 10,2 C 9,4 C 8,9 C 98 % 1002,6 hPa 0,0 l/m 0 min 0 min 0 W/m 25,7 km/h (4 Bft) 95,74 %
30.01.2020 21:32 10,2 C 9,4 C 8,9 C 98 % 1002,6 hPa 0,0 l/m 0 min 0 min 0 W/m 12,9 km/h (3 Bft) 95,74 %
30.01.2020 21:34 10,2 C 9,4 C 8,9 C 98 % 1002,6 hPa 0,0 l/m 0 min 0 min 0 W/m 25,7 km/h (4 Bft) 95,74 %
30.01.2020 21:36 10,2 C 9,4 C 8,9 C 98 % 1002,6 hPa 0,0 l/m 0 min 0 min 0 W/m 16,1 km/h (3 Bft) 95,74 %
30.01.2020 21:38 10,3 C 9,4 C 8,9 C 98 % 1002,6 hPa 0,0 l/m 0 min 0 min 0 W/m 3,2 km/h (1 Bft) 93,48 %
30.01.2020 21:40 10,3 C 9,4 C 8,9 C 99 % 1002,6 hPa 0,0 l/m 0 min 0 min 0 W/m 35,4 km/h (5 Bft) 95,74 %
30.01.2020 21:42 10,3 C 9,4 C 8,9 C 99 % 1002,6 hPa 0,0 l/m 0 min 0 min 0 W/m 16,1 km/h (3 Bft) 95,74 %
30.01.2020 21:44 10,3 C 9,4 C 8,9 C 99 % 1002,7 hPa 0,0 l/m 0 min 0 min 0 W/m 16,1 km/h (3 Bft) 95,74 %
30.01.2020 21:46 10,4 C 9,4 C 8,9 C 99 % 1002,7 hPa 0,0 l/m 0 min 0 min 0 W/m 6,4 km/h (2 Bft) 93,62 %
30.01.2020 21:48 10,4 C 9,4 C 8,9 C 99 % 1002,7 hPa 0,0 l/m 0 min 0 min 0 W/m 16,1 km/h (3 Bft) 95,74 %
30.01.2020 21:50 10,4 C 9,4 C 8,9 C 99 % 1002,8 hPa 0,0 l/m 0 min 2 min 0 W/m 25,7 km/h (4 Bft) 95,65 %
30.01.2020 21:52 10,4 C 9,4 C 8,9 C 99 % 1002,8 hPa 0,0 l/m 0 min 0 min 0 W/m 3,2 km/h (1 Bft) 95,74 %
30.01.2020 21:54 10,4 C 9,4 C 8,9 C 99 % 1002,8 hPa 0,0 l/m 0 min 0 min 0 W/m 12,9 km/h (3 Bft) 95,74 %
30.01.2020 21:56 10,4 C 9,4 C 8,9 C 99 % 1002,7 hPa 0,0 l/m 0 min 0 min 0 W/m 19,3 km/h (3 Bft) 93,62 %
30.01.2020 21:58 10,5 C 9,4 C 8,9 C 99 % 1002,8 hPa 0,0 l/m 0 min 0 min 0 W/m 19,3 km/h (3 Bft) 93,62 %
30.01.2020 22:00 10,6 C 9,4 C 8,9 C 99 % 1002,8 hPa 0,0 l/m 0 min 2 min 0 W/m 16,1 km/h (3 Bft) 95,74 %
30.01.2020 22:02 10,6 C 9,4 C 8,9 C 99 % 1002,8 hPa 0,0 l/m 0 min 0 min 0 W/m 25,7 km/h (4 Bft) 93,48 %
30.01.2020 22:04 10,6 C 9,4 C 8,9 C 99 % 1002,9 hPa 0,0 l/m 0 min 2 min 0 W/m 22,5 km/h (4 Bft) 95,74 %
30.01.2020 22:06 10,6 C 9,4 C 8,9 C 99 % 1002,9 hPa 0,0 l/m 0 min 0 min 0 W/m 25,7 km/h (4 Bft) 93,62 %
30.01.2020 22:08 10,7 C 10,0 C 8,9 C 99 % 1002,9 hPa 0,0 l/m 0 min 2 min 0 W/m 22,5 km/h (4 Bft) 95,74 %
30.01.2020 22:10 10,7 C 10,0 C 9,4 C 99 % 1002,9 hPa 0,0 l/m 0 min 2 min 0 W/m 12,9 km/h (3 Bft) 95,74 %
30.01.2020 22:12 10,7 C 10,0 C 9,4 C 99 % 1003,0 hPa 0,0 l/m 0 min 0 min 0 W/m 22,5 km/h (4 Bft) 91,49 %
30.01.2020 22:14 10,8 C 10,0 C 9,4 C 99 % 1002,9 hPa 0,0 l/m 0 min 2 min 0 W/m 29,0 km/h (5 Bft) 95,65 %
30.01.2020 22:16 10,8 C 10,0 C 9,4 C 99 % 1003,0 hPa 0,0 l/m 0 min 2 min 0 W/m 19,3 km/h (3 Bft) 95,74 %
30.01.2020 22:18 10,8 C 10,0 C 9,4 C 99 % 1003,0 hPa 0,0 l/m 0 min 2 min 0 W/m 12,9 km/h (3 Bft) 97,87 %
30.01.2020 22:20 10,9 C 10,0 C 9,4 C 99 % 1003,0 hPa 0,0 l/m 0 min 2 min 0 W/m 16,1 km/h (3 Bft) 97,87 %
30.01.2020 22:22 10,9 C 10,0 C 9,4 C 99 % 1003,0 hPa 0,0 l/m 0 min 2 min 0 W/m 25,7 km/h (4 Bft) 97,87 %
30.01.2020 22:24 10,9 C 10,0 C 9,4 C 99 % 1003,1 hPa 0,0 l/m 0 min 2 min 0 W/m 19,3 km/h (3 Bft) 97,83 %
30.01.2020 22:26 11,0 C 10,0 C 9,4 C 99 % 1003,1 hPa 0,0 l/m 0 min 2 min 0 W/m 16,1 km/h (3 Bft) 97,87 %
30.01.2020 22:28 11,0 C 10,0 C 9,4 C 99 % 1003,1 hPa 0,0 l/m 0 min 2 min 0 W/m 22,5 km/h (4 Bft) 95,74 %
30.01.2020 22:30 11,1 C 10,0 C 9,4 C 99 % 1003,1 hPa 0,0 l/m 0 min 2 min 0 W/m 19,3 km/h (3 Bft) 97,87 %
30.01.2020 22:32 11,1 C 10,0 C 9,4 C 99 % 1003,5 hPa 0,0 l/m 0 min 2 min 0 W/m 25,7 km/h (4 Bft) 95,65 %
30.01.2020 22:34 11,1 C 10,0 C 9,4 C 99 % 1003,1 hPa 0,0 l/m 0 min 2 min 0 W/m 25,7 km/h (4 Bft) 97,87 %
30.01.2020 22:36 11,1 C 10,0 C 9,4 C 99 % 1003,0 hPa 0,0 l/m 0 min 2 min 0 W/m 19,3 km/h (3 Bft) 97,83 %
30.01.2020 22:38 11,1 C 10,0 C 9,4 C 99 % 1003,2 hPa 0,0 l/m 0 min 2 min 0 W/m 22,5 km/h (4 Bft) 97,87 %
30.01.2020 22:40 11,1 C 10,0 C 9,4 C 99 % 1003,1 hPa 0,0 l/m 0 min 0 min 0 W/m 35,4 km/h (5 Bft) 97,87 %
30.01.2020 22:42 11,1 C 10,0 C 9,4 C 99 % 1003,1 hPa 0,0 l/m 0 min 2 min 0 W/m 12,9 km/h (3 Bft) 97,87 %
30.01.2020 22:44 11,2 C 10,0 C 9,4 C 99 % 1003,0 hPa 0,0 l/m 0 min 0 min 0 W/m 22,5 km/h (4 Bft) 97,87 %
30.01.2020 22:46 11,2 C 10,0 C 9,4 C 99 % 1003,0 hPa 0,0 l/m 0 min 0 min 0 W/m 12,9 km/h (3 Bft) 97,87 %
30.01.2020 22:48 11,2 C 10,0 C 9,4 C 99 % 1003,0 hPa 0,0 l/m 0 min 0 min 0 W/m 16,1 km/h (3 Bft) 97,83 %
30.01.2020 22:50 11,2 C 10,0 C 9,4 C 99 % 1003,1 hPa 0,2 l/m 0 min 0 min 0 W/m 25,7 km/h (4 Bft) 97,87 %
30.01.2020 22:52 11,2 C 10,0 C 9,4 C 99 % 1003,0 hPa 0,0 l/m 0 min 0 min 0 W/m 19,3 km/h (3 Bft) 97,87 %
30.01.2020 22:54 11,2 C 10,0 C 9,4 C 99 % 1003,1 hPa 0,0 l/m 0 min 0 min 0 W/m 16,1 km/h (3 Bft) 97,87 %
30.01.2020 22:56 11,2 C 10,0 C 9,4 C 99 % 1002,9 hPa 0,0 l/m 0 min 2 min 0 W/m 25,7 km/h (4 Bft) 97,87 %
30.01.2020 22:58 11,3 C 10,0 C 9,4 C 99 % 1002,9 hPa 0,0 l/m 0 min 0 min 0 W/m 16,1 km/h (3 Bft) 95,74 %
30.01.2020 23:00 11,3 C 10,0 C 9,4 C 99 % 1002,9 hPa 0,0 l/m 0 min 0 min 0 W/m 22,5 km/h (4 Bft) 100,00 %
30.01.2020 23:02 11,3 C 10,0 C 9,4 C 99 % 1002,9 hPa 0,0 l/m 0 min 2 min 0 W/m 25,7 km/h (4 Bft) 100,00 %
30.01.2020 23:04 11,3 C 10,0 C 9,4 C 99 % 1002,9 hPa 0,0 l/m 0 min 0 min 0 W/m 6,4 km/h (2 Bft) 100,00 %
30.01.2020 23:06 11,3 C 10,0 C 9,4 C 99 % 1003,0 hPa 0,0 l/m 0 min 0 min 0 W/m 25,7 km/h (4 Bft) 97,87 %
30.01.2020 23:08 11,3 C 10,0 C 9,4 C 99 % 1002,9 hPa 0,0 l/m 0 min 0 min 0 W/m 6,4 km/h (2 Bft) 100,00 %
30.01.2020 23:10 11,3 C 10,0 C 9,4 C 99 % 1003,0 hPa 0,0 l/m 0 min 0 min 0 W/m 6,4 km/h (2 Bft) 95,74 %
30.01.2020 23:12 11,3 C 10,6 C 9,4 C 99 % 1002,9 hPa 0,0 l/m 0 min 0 min 0 W/m 35,4 km/h (5 Bft) 100,00 %
30.01.2020 23:14 11,3 C 10,6 C 10,0 C 99 % 1002,9 hPa 0,0 l/m 0 min 0 min 0 W/m 16,1 km/h (3 Bft) 100,00 %
30.01.2020 23:16 11,4 C 10,6 C 9,4 C 99 % 1002,9 hPa 0,0 l/m 0 min 0 min 0 W/m 16,1 km/h (3 Bft) 100,00 %
30.01.2020 23:18 11,4 C 10,6 C 10,0 C 99 % 1002,8 hPa 0,0 l/m 0 min 0 min 0 W/m 6,4 km/h (2 Bft) 100,00 %
30.01.2020 23:20 11,4 C 10,6 C 10,0 C 99 % 1002,8 hPa 0,0 l/m 0 min 0 min 0 W/m 12,9 km/h (3 Bft) 100,00 %
30.01.2020 23:22 11,4 C 10,6 C 10,0 C 99 % 1002,8 hPa 0,0 l/m 0 min 0 min 0 W/m 12,9 km/h (3 Bft) 95,74 %
30.01.2020 23:24 11,4 C 10,6 C 10,0 C 99 % 1002,7 hPa 0,0 l/m 0 min 0 min 0 W/m 16,1 km/h (3 Bft) 100,00 %
30.01.2020 23:26 11,4 C 10,6 C 10,0 C 99 % 1002,8 hPa 0,0 l/m 0 min 0 min 0 W/m 12,9 km/h (3 Bft) 100,00 %
30.01.2020 23:28 11,4 C 10,6 C 10,0 C 99 % 1002,8 hPa 0,0 l/m 0 min 0 min 0 W/m 19,3 km/h (3 Bft) 100,00 %
30.01.2020 23:30 11,4 C 10,6 C 10,0 C 99 % 1002,8 hPa 0,0 l/m 0 min 0 min 0 W/m 19,3 km/h (3 Bft) 97,87 %
30.01.2020 23:32 11,5 C 10,6 C 10,0 C 99 % 1002,7 hPa 0,0 l/m 0 min 0 min 0 W/m 19,3 km/h (3 Bft) 97,87 %
30.01.2020 23:34 11,5 C 10,6 C 10,0 C 99 % 1002,8 hPa 0,0 l/m 0 min 0 min 0 W/m 19,3 km/h (3 Bft) 100,00 %
30.01.2020 23:36 11,6 C 10,6 C 10,0 C 99 % 1002,7 hPa 0,0 l/m 0 min 0 min 0 W/m 22,5 km/h (4 Bft) 100,00 %
30.01.2020 23:38 11,6 C 10,6 C 10,0 C 100 % 1002,6 hPa 0,0 l/m 0 min 0 min 0 W/m 19,3 km/h (3 Bft) 100,00 %
30.01.2020 23:40 11,6 C 10,6 C 10,0 C 100 % 1002,5 hPa 0,0 l/m 0 min 0 min 0 W/m 19,3 km/h (3 Bft) 100,00 %
30.01.2020 23:42 11,6 C 10,6 C 10,0 C 100 % 1002,6 hPa 0,0 l/m 0 min 0 min 0 W/m 16,1 km/h (3 Bft) 100,00 %
30.01.2020 23:44 11,6 C 10,6 C 10,0 C 100 % 1002,6 hPa 0,0 l/m 0 min 0 min 0 W/m 12,9 km/h (3 Bft) 97,87 %
30.01.2020 23:46 11,6 C 10,6 C 10,0 C 100 % 1002,7 hPa 0,0 l/m 0 min 0 min 0 W/m 16,1 km/h (3 Bft) 100,00 %
30.01.2020 23:48 11,6 C 10,6 C 10,0 C 100 % 1002,6 hPa 0,0 l/m 0 min 0 min 0 W/m 16,1 km/h (3 Bft) 100,00 %
30.01.2020 23:50 11,6 C 10,6 C 10,0 C 99 % 1002,7 hPa 0,0 l/m 0 min 0 min 0 W/m 19,3 km/h (3 Bft) 100,00 %
30.01.2020 23:52 11,6 C 10,6 C 10,0 C 99 % 1002,6 hPa 0,0 l/m 0 min 0 min 0 W/m 25,7 km/h (4 Bft) 100,00 %
30.01.2020 23:54 11,7 C 10,6 C 10,0 C 99 % 1002,7 hPa 0,0 l/m 0 min 0 min 0 W/m 19,3 km/h (3 Bft) 100,00 %
30.01.2020 23:56 11,7 C 10,6 C 10,0 C 99 % 1002,7 hPa 0,0 l/m 0 min 0 min 0 W/m 29,0 km/h (5 Bft) 100,00 %
30.01.2020 23:58 11,7 C 10,6 C 10,0 C 99 % 1002,7 hPa 0,0 l/m 0 min 0 min 0 W/m 19,3 km/h (3 Bft) 100,00 %
_ Min-Zeit 03:18 02:58 02:32 14:14 21:16 - - - - 21:38 07:32
Minimum _ 5,9 C 5,0 C 4,4 C 79 % 1002,3 hPa - - - - 3,2 km/h (1 Bft) 89,36 %
_ Max-Zeit 23:54 11:54 12:38 23:38 00:00 17:02 09:44 16:54 12:08 20:42 00:00
Maximum _ 11,7 C 12,8 C 10,0 C 100 % 1013,2 hPa 0,2 l/m 2 min 2 min 364 W/m 41,8 km/h
SO (6 Bft)
100,00 %
Durchschnitt _ 8,3 C 7,8 C 6,9 C 89 % 1008,6 hPa #2,0 l/m #3:08 h #2:38 h 131 W/m 21,0 km/h (4 Bft) 97,65 %
© 2020 W. Hausmann